Wetterdaten: Donnerstag, 16.03.2023
Datum Zeit Temp. Aussen Temp. o. S. Temp +5cm Feuchte Auss Luftdruck Regen Sonnenschein Regendauer Solar Windben Empfang
16.03.2023 00:00 3,6 C 2,8 C -0,6 C 80 % 1019,7 hPa 0,0 l/m 0 min 0 min 0 W/m 6,4 km/h (2 Bft) 98,15 %
16.03.2023 00:02 3,5 C 2,8 C -0,6 C 80 % 1019,7 hPa 0,0 l/m 0 min 0 min 0 W/m 12,9 km/h (3 Bft) 89,36 %
16.03.2023 00:04 3,5 C 2,8 C -0,6 C 80 % 1019,6 hPa 0,0 l/m 0 min 0 min 0 W/m 12,9 km/h (3 Bft) 94,44 %
16.03.2023 00:08 3,4 C 2,8 C -0,6 C 80 % 1019,7 hPa 0,0 l/m 0 min 0 min 0 W/m 16,1 km/h (3 Bft) 94,62 %
16.03.2023 00:10 3,4 C 2,8 C -0,6 C 80 % 1019,7 hPa 0,0 l/m 0 min 0 min 0 W/m 16,1 km/h (3 Bft) 97,92 %
16.03.2023 00:12 3,4 C 2,8 C -0,6 C 80 % 1019,7 hPa 0,0 l/m 0 min 0 min 0 W/m 9,7 km/h (2 Bft) 95,74 %
16.03.2023 00:14 3,4 C 2,8 C -0,6 C 81 % 1019,8 hPa 0,0 l/m 0 min 0 min 0 W/m 12,9 km/h (3 Bft) 95,74 %
16.03.2023 00:16 3,3 C 2,8 C -0,6 C 81 % 1019,8 hPa 0,0 l/m 0 min 0 min 0 W/m 12,9 km/h (3 Bft) 93,75 %
16.03.2023 00:18 3,3 C 2,8 C -0,6 C 81 % 1019,8 hPa 0,0 l/m 0 min 0 min 0 W/m 16,1 km/h (3 Bft) 95,74 %
16.03.2023 00:20 3,3 C 2,8 C -0,6 C 81 % 1019,8 hPa 0,0 l/m 0 min 0 min 0 W/m 12,9 km/h (3 Bft) 95,74 %
16.03.2023 00:22 3,3 C 2,8 C -0,6 C 81 % 1019,8 hPa 0,0 l/m 0 min 0 min 0 W/m 9,7 km/h (2 Bft) 95,74 %
16.03.2023 00:24 3,3 C 2,8 C -0,6 C 81 % 1019,9 hPa 0,0 l/m 0 min 0 min 0 W/m 12,9 km/h (3 Bft) 93,75 %
16.03.2023 00:26 3,3 C 2,8 C -0,6 C 81 % 1019,8 hPa 0,0 l/m 0 min 0 min 0 W/m 12,9 km/h (3 Bft) 95,74 %
16.03.2023 00:28 3,3 C 2,8 C -0,6 C 81 % 1019,8 hPa 0,0 l/m 0 min 0 min 0 W/m 16,1 km/h (3 Bft) 95,74 %
16.03.2023 00:30 3,3 C 2,8 C -0,6 C 81 % 1019,8 hPa 0,0 l/m 0 min 0 min 0 W/m 16,1 km/h (3 Bft) 95,74 %
16.03.2023 00:32 3,3 C 2,8 C -0,6 C 81 % 1019,9 hPa 0,0 l/m 0 min 0 min 0 W/m 12,9 km/h (3 Bft) 95,74 %
16.03.2023 00:34 3,3 C 2,8 C -0,6 C 81 % 1019,9 hPa 0,0 l/m 0 min 0 min 0 W/m 6,4 km/h (2 Bft) 95,74 %
16.03.2023 00:36 3,2 C 2,8 C -0,6 C 81 % 1019,9 hPa 0,0 l/m 0 min 0 min 0 W/m 16,1 km/h (3 Bft) 95,65 %
16.03.2023 00:38 3,2 C 2,8 C -0,6 C 81 % 1019,9 hPa 0,0 l/m 0 min 0 min 0 W/m 16,1 km/h (3 Bft) 95,74 %
16.03.2023 00:40 3,2 C 2,2 C -0,6 C 81 % 1019,8 hPa 0,0 l/m 0 min 0 min 0 W/m 16,1 km/h (3 Bft) 93,88 %
16.03.2023 00:42 3,2 C 2,2 C -0,6 C 81 % 1019,9 hPa 0,0 l/m 0 min 0 min 0 W/m 19,3 km/h (3 Bft) 95,74 %
16.03.2023 00:44 3,2 C 2,2 C -1,1 C 81 % 1019,8 hPa 0,0 l/m 0 min 0 min 0 W/m 16,1 km/h (3 Bft) 97,62 %
16.03.2023 00:46 3,2 C 2,2 C -1,1 C 81 % 1019,8 hPa 0,0 l/m 0 min 0 min 0 W/m 16,1 km/h (3 Bft) 69,39 %
16.03.2023 00:48 3,2 C 2,2 C -1,1 C 81 % 1019,8 hPa 0,0 l/m 0 min 0 min 0 W/m 12,9 km/h (3 Bft) 28,57 %
16.03.2023 00:50 3,1 C 2,2 C -1,1 C 81 % 1019,8 hPa 0,0 l/m 0 min 0 min 0 W/m 22,5 km/h (4 Bft) 97,87 %
16.03.2023 00:52 3,2 C 2,2 C -1,1 C 81 % 1019,8 hPa 0,0 l/m 0 min 0 min 0 W/m 9,7 km/h (2 Bft) 97,87 %
16.03.2023 00:54 3,1 C 2,2 C -1,1 C 82 % 1019,8 hPa 0,0 l/m 0 min 0 min 0 W/m 12,9 km/h (3 Bft) 97,87 %
16.03.2023 00:56 3,1 C 2,2 C -1,1 C 82 % 1019,9 hPa 0,0 l/m 0 min 0 min 0 W/m 16,1 km/h (3 Bft) 97,87 %
16.03.2023 00:58 3,1 C 2,2 C -1,1 C 82 % 1019,8 hPa 0,0 l/m 0 min 0 min 0 W/m 16,1 km/h (3 Bft) 95,74 %
16.03.2023 01:00 3,1 C 2,2 C -1,1 C 82 % 1019,8 hPa 0,0 l/m 0 min 0 min 0 W/m 12,9 km/h (3 Bft) 97,87 %
16.03.2023 01:02 3,1 C 2,2 C -1,1 C 82 % 1019,8 hPa 0,0 l/m 0 min 0 min 0 W/m 19,3 km/h (3 Bft) 97,87 %
16.03.2023 01:04 3,1 C 2,2 C -1,1 C 82 % 1019,7 hPa 0,0 l/m 0 min 0 min 0 W/m 16,1 km/h (3 Bft) 95,65 %
16.03.2023 01:06 3,1 C 2,2 C -1,1 C 82 % 1019,7 hPa 0,0 l/m 0 min 0 min 0 W/m 16,1 km/h (3 Bft) 97,87 %
16.03.2023 01:08 3,1 C 2,2 C -1,1 C 82 % 1019,7 hPa 0,0 l/m 0 min 0 min 0 W/m 16,1 km/h (3 Bft) 95,74 %
16.03.2023 01:10 3,1 C 2,2 C -1,1 C 82 % 1019,6 hPa 0,0 l/m 0 min 0 min 0 W/m 12,9 km/h (3 Bft) 97,87 %
16.03.2023 01:12 3,1 C 2,2 C -1,1 C 82 % 1019,6 hPa 0,0 l/m 0 min 0 min 0 W/m 16,1 km/h (3 Bft) 97,87 %
16.03.2023 01:14 3,1 C 2,2 C -1,1 C 82 % 1019,5 hPa 0,0 l/m 0 min 0 min 0 W/m 16,1 km/h (3 Bft) 97,87 %
16.03.2023 01:16 3,1 C 2,2 C -1,1 C 82 % 1019,6 hPa 0,0 l/m 0 min 0 min 0 W/m 16,1 km/h (3 Bft) 97,87 %
16.03.2023 01:18 3,1 C 2,2 C -1,1 C 82 % 1019,5 hPa 0,0 l/m 0 min 0 min 0 W/m 12,9 km/h (3 Bft) 97,83 %
16.03.2023 01:20 3,1 C 2,2 C -1,1 C 82 % 1019,5 hPa 0,0 l/m 0 min 0 min 0 W/m 16,1 km/h (3 Bft) 100,00 %
16.03.2023 01:22 3,1 C 2,2 C -1,1 C 83 % 1019,5 hPa 0,0 l/m 0 min 0 min 0 W/m 16,1 km/h (3 Bft) 97,87 %
16.03.2023 01:24 3,1 C 2,2 C -1,1 C 83 % 1019,5 hPa 0,0 l/m 0 min 0 min 0 W/m 16,1 km/h (3 Bft) 100,00 %
16.03.2023 01:26 3,0 C 2,2 C -1,1 C 83 % 1019,5 hPa 0,0 l/m 0 min 0 min 0 W/m 16,1 km/h (3 Bft) 100,00 %
16.03.2023 01:28 3,0 C 2,2 C -1,1 C 83 % 1019,6 hPa 0,0 l/m 0 min 0 min 0 W/m 16,1 km/h (3 Bft) 100,00 %
16.03.2023 01:30 3,0 C 2,2 C -1,1 C 83 % 1019,6 hPa 0,0 l/m 0 min 0 min 0 W/m 19,3 km/h (3 Bft) 100,00 %
16.03.2023 01:32 3,0 C 2,2 C -1,1 C 83 % 1019,6 hPa 0,0 l/m 0 min 0 min 0 W/m 16,1 km/h (3 Bft) 95,65 %
16.03.2023 01:34 2,9 C 2,2 C -1,1 C 83 % 1019,6 hPa 0,0 l/m 0 min 0 min 0 W/m 12,9 km/h (3 Bft) 100,00 %
16.03.2023 01:36 2,9 C 2,2 C -1,1 C 83 % 1019,6 hPa 0,0 l/m 0 min 0 min 0 W/m 12,9 km/h (3 Bft) 97,87 %
16.03.2023 01:38 2,9 C 2,2 C -1,1 C 83 % 1019,6 hPa 0,0 l/m 0 min 0 min 0 W/m 12,9 km/h (3 Bft) 100,00 %
16.03.2023 01:40 2,9 C 2,2 C -1,1 C 83 % 1019,6 hPa 0,0 l/m 0 min 0 min 0 W/m 16,1 km/h (3 Bft) 100,00 %
16.03.2023 01:42 2,9 C 2,2 C -1,1 C 83 % 1019,6 hPa 0,0 l/m 0 min 0 min 0 W/m 12,9 km/h (3 Bft) 100,00 %
16.03.2023 01:44 2,9 C 2,2 C -1,1 C 83 % 1019,6 hPa 0,0 l/m 0 min 0 min 0 W/m 16,1 km/h (3 Bft) 100,00 %
16.03.2023 01:46 2,9 C 2,2 C -1,1 C 83 % 1019,5 hPa 0,0 l/m 0 min 0 min 0 W/m 12,9 km/h (3 Bft) 100,00 %
16.03.2023 01:48 2,9 C 2,2 C -1,1 C 83 % 1019,5 hPa 0,0 l/m 0 min 0 min 0 W/m 12,9 km/h (3 Bft) 100,00 %
16.03.2023 01:50 2,9 C 2,2 C -1,1 C 83 % 1019,5 hPa 0,0 l/m 0 min 0 min 0 W/m 19,3 km/h (3 Bft) 100,00 %
16.03.2023 01:52 2,9 C 2,2 C -1,1 C 83 % 1019,6 hPa 0,0 l/m 0 min 0 min 0 W/m 12,9 km/h (3 Bft) 97,87 %
16.03.2023 01:54 2,9 C 2,2 C -1,1 C 83 % 1019,5 hPa 0,0 l/m 0 min 0 min 0 W/m 12,9 km/h (3 Bft) 97,87 %
16.03.2023 01:56 2,9 C 2,2 C -1,1 C 83 % 1019,4 hPa 0,0 l/m 0 min 0 min 0 W/m 19,3 km/h (3 Bft) 97,87 %
16.03.2023 01:58 2,9 C 2,2 C -1,1 C 83 % 1019,4 hPa 0,0 l/m 0 min 0 min 0 W/m 19,3 km/h (3 Bft) 100,00 %
16.03.2023 02:00 2,9 C 2,2 C -1,1 C 83 % 1019,4 hPa 0,0 l/m 0 min 0 min 0 W/m 19,3 km/h (3 Bft) 100,00 %
16.03.2023 02:02 2,9 C 2,2 C -1,1 C 83 % 1019,3 hPa 0,0 l/m 0 min 0 min 0 W/m 16,1 km/h (3 Bft) 100,00 %
16.03.2023 02:04 2,9 C 2,2 C -1,1 C 83 % 1019,3 hPa 0,0 l/m 0 min 0 min 0 W/m 22,5 km/h (4 Bft) 100,00 %
16.03.2023 02:06 2,9 C 2,2 C -1,1 C 83 % 1019,3 hPa 0,0 l/m 0 min 0 min 0 W/m 16,1 km/h (3 Bft) 100,00 %
16.03.2023 02:08 2,9 C 2,2 C -1,1 C 83 % 1019,3 hPa 0,0 l/m 0 min 0 min 0 W/m 22,5 km/h (4 Bft) 100,00 %
16.03.2023 02:10 2,9 C 2,2 C -1,1 C 83 % 1019,2 hPa 0,0 l/m 0 min 0 min 0 W/m 16,1 km/h (3 Bft) 97,87 %
16.03.2023 02:14 2,9 C 2,2 C -1,1 C 83 % 1019,2 hPa 0,0 l/m 0 min 0 min 0 W/m 19,3 km/h (3 Bft) 100,00 %
16.03.2023 02:16 2,9 C 2,2 C -1,1 C 83 % 1019,2 hPa 0,0 l/m 0 min 0 min 0 W/m 19,3 km/h (3 Bft) 93,62 %
16.03.2023 02:18 2,9 C 2,2 C -1,1 C 83 % 1019,2 hPa 0,0 l/m 0 min 0 min 0 W/m 16,1 km/h (3 Bft) 100,00 %
16.03.2023 02:20 2,9 C 2,2 C -1,1 C 83 % 1019,2 hPa 0,0 l/m 0 min 0 min 0 W/m 19,3 km/h (3 Bft) 97,87 %
16.03.2023 02:22 2,9 C 2,2 C -1,1 C 83 % 1019,1 hPa 0,0 l/m 0 min 0 min 0 W/m 19,3 km/h (3 Bft) 97,87 %
16.03.2023 02:24 2,9 C 2,2 C -1,1 C 83 % 1019,1 hPa 0,0 l/m 0 min 0 min 0 W/m 16,1 km/h (3 Bft) 95,74 %
16.03.2023 02:26 3,0 C 2,2 C -1,1 C 83 % 1019,0 hPa 0,0 l/m 0 min 0 min 0 W/m 16,1 km/h (3 Bft) 94,55 %
16.03.2023 02:28 2,9 C 2,2 C -1,1 C 83 % 1018,9 hPa 0,0 l/m 0 min 0 min 0 W/m 22,5 km/h (4 Bft) 95,74 %
16.03.2023 02:30 2,9 C 2,2 C -1,1 C 83 % 1018,9 hPa 0,0 l/m 0 min 0 min 0 W/m 22,5 km/h (4 Bft) 97,87 %
16.03.2023 02:32 3,0 C 2,2 C -1,1 C 83 % 1018,9 hPa 0,0 l/m 0 min 0 min 0 W/m 19,3 km/h (3 Bft) 97,87 %
16.03.2023 02:34 2,9 C 2,2 C -1,1 C 83 % 1018,9 hPa 0,0 l/m 0 min 0 min 0 W/m 16,1 km/h (3 Bft) 97,83 %
16.03.2023 02:36 3,0 C 2,2 C -1,1 C 83 % 1018,9 hPa 0,0 l/m 0 min 0 min 0 W/m 12,9 km/h (3 Bft) 95,74 %
16.03.2023 02:38 3,0 C 2,2 C -1,1 C 83 % 1018,8 hPa 0,0 l/m 0 min 0 min 0 W/m 19,3 km/h (3 Bft) 97,87 %
16.03.2023 02:40 3,0 C 2,2 C -1,1 C 83 % 1018,8 hPa 0,0 l/m 0 min 0 min 0 W/m 16,1 km/h (3 Bft) 95,74 %
16.03.2023 02:42 3,0 C 2,2 C -1,1 C 83 % 1018,8 hPa 0,0 l/m 0 min 0 min 0 W/m 12,9 km/h (3 Bft) 95,74 %
16.03.2023 02:44 3,0 C 2,2 C -1,1 C 83 % 1018,7 hPa 0,0 l/m 0 min 0 min 0 W/m 22,5 km/h (4 Bft) 95,74 %
16.03.2023 02:46 3,0 C 2,2 C -1,1 C 83 % 1018,7 hPa 0,0 l/m 0 min 0 min 0 W/m 16,1 km/h (3 Bft) 97,87 %
16.03.2023 02:48 3,0 C 2,2 C -1,1 C 83 % 1018,7 hPa 0,0 l/m 0 min 0 min 0 W/m 16,1 km/h (3 Bft) 93,48 %
16.03.2023 02:50 3,0 C 2,2 C -1,1 C 83 % 1018,7 hPa 0,0 l/m 0 min 0 min 0 W/m 16,1 km/h (3 Bft) 97,87 %
16.03.2023 02:52 3,0 C 2,2 C -1,1 C 83 % 1018,7 hPa 0,0 l/m 0 min 0 min 0 W/m 16,1 km/h (3 Bft) 93,62 %
16.03.2023 02:54 3,0 C 2,2 C -1,1 C 83 % 1018,6 hPa 0,0 l/m 0 min 0 min 0 W/m 12,9 km/h (3 Bft) 95,74 %
16.03.2023 02:56 3,0 C 2,2 C -1,1 C 83 % 1018,7 hPa 0,0 l/m 0 min 0 min 0 W/m 16,1 km/h (3 Bft) 95,74 %
16.03.2023 02:58 3,0 C 2,2 C -1,1 C 83 % 1018,7 hPa 0,0 l/m 0 min 0 min 0 W/m 12,9 km/h (3 Bft) 97,87 %
16.03.2023 03:00 3,0 C 2,2 C -1,1 C 83 % 1018,7 hPa 0,0 l/m 0 min 0 min 0 W/m 16,1 km/h (3 Bft) 97,87 %
16.03.2023 03:02 3,0 C 2,2 C -1,1 C 83 % 1018,7 hPa 0,0 l/m 0 min 0 min 0 W/m 22,5 km/h (4 Bft) 93,48 %
16.03.2023 03:04 3,0 C 2,2 C -1,1 C 83 % 1018,6 hPa 0,0 l/m 0 min 0 min 0 W/m 16,1 km/h (3 Bft) 95,74 %
16.03.2023 03:06 3,0 C 2,2 C -1,1 C 83 % 1018,7 hPa 0,0 l/m 0 min 0 min 0 W/m 16,1 km/h (3 Bft) 95,74 %
16.03.2023 03:08 3,0 C 2,2 C -1,1 C 83 % 1018,7 hPa 0,0 l/m 0 min 0 min 0 W/m 19,3 km/h (3 Bft) 95,83 %
16.03.2023 03:10 3,0 C 2,2 C -1,1 C 83 % 1018,6 hPa 0,0 l/m 0 min 0 min 0 W/m 19,3 km/h (3 Bft) 95,74 %
16.03.2023 03:12 3,0 C 2,2 C -1,1 C 83 % 1018,7 hPa 0,0 l/m 0 min 0 min 0 W/m 16,1 km/h (3 Bft) 97,92 %
16.03.2023 03:14 3,0 C 2,2 C -1,1 C 83 % 1018,6 hPa 0,0 l/m 0 min 0 min 0 W/m 12,9 km/h (3 Bft) 93,48 %
16.03.2023 03:16 3,0 C 2,2 C -1,1 C 83 % 1018,5 hPa 0,0 l/m 0 min 0 min 0 W/m 16,1 km/h (3 Bft) 95,74 %
16.03.2023 03:18 3,0 C 2,2 C -1,1 C 83 % 1018,5 hPa 0,0 l/m 0 min 0 min 0 W/m 19,3 km/h (3 Bft) 95,74 %
16.03.2023 03:20 2,9 C 2,2 C -1,1 C 83 % 1018,5 hPa 0,0 l/m 0 min 0 min 0 W/m 12,9 km/h (3 Bft) 97,87 %
16.03.2023 03:22 2,9 C 2,2 C -1,1 C 83 % 1018,5 hPa 0,0 l/m 0 min 0 min 0 W/m 19,3 km/h (3 Bft) 97,87 %
16.03.2023 03:24 2,9 C 2,2 C -1,1 C 83 % 1018,4 hPa 0,0 l/m 0 min 0 min 0 W/m 12,9 km/h (3 Bft) 97,87 %
16.03.2023 03:26 2,9 C 2,2 C -1,1 C 83 % 1018,5 hPa 0,0 l/m 0 min 0 min 0 W/m 16,1 km/h (3 Bft) 97,14 %
16.03.2023 03:28 2,9 C 2,2 C -1,1 C 83 % 1018,4 hPa 0,0 l/m 0 min 0 min 0 W/m 16,1 km/h (3 Bft) 97,87 %
16.03.2023 03:30 2,9 C 2,2 C -1,1 C 83 % 1018,4 hPa 0,0 l/m 0 min 0 min 0 W/m 12,9 km/h (3 Bft) 97,92 %
16.03.2023 03:32 2,9 C 2,2 C -1,1 C 83 % 1018,3 hPa 0,0 l/m 0 min 0 min 0 W/m 16,1 km/h (3 Bft) 97,87 %
16.03.2023 03:34 2,9 C 2,2 C -1,1 C 83 % 1018,3 hPa 0,0 l/m 0 min 0 min 0 W/m 16,1 km/h (3 Bft) 95,65 %
16.03.2023 03:36 2,9 C 2,2 C -1,1 C 83 % 1018,3 hPa 0,0 l/m 0 min 0 min 0 W/m 19,3 km/h (3 Bft) 95,74 %
16.03.2023 03:38 2,9 C 2,2 C -1,1 C 83 % 1018,2 hPa 0,0 l/m 0 min 0 min 0 W/m 12,9 km/h (3 Bft) 97,87 %
16.03.2023 03:40 2,9 C 2,2 C -1,1 C 83 % 1018,3 hPa 0,0 l/m 0 min 0 min 0 W/m 22,5 km/h (4 Bft) 97,87 %
16.03.2023 03:42 2,9 C 2,2 C -1,1 C 83 % 1018,2 hPa 0,0 l/m 0 min 0 min 0 W/m 12,9 km/h (3 Bft) 96,30 %
16.03.2023 03:44 2,9 C 2,2 C -1,1 C 83 % 1018,2 hPa 0,0 l/m 0 min 0 min 0 W/m 16,1 km/h (3 Bft) 95,65 %
16.03.2023 03:46 2,9 C 2,2 C -1,1 C 83 % 1018,2 hPa 0,0 l/m 0 min 0 min 0 W/m 12,9 km/h (3 Bft) 95,74 %
16.03.2023 03:48 2,9 C 2,2 C -1,1 C 83 % 1018,1 hPa 0,0 l/m 0 min 0 min 0 W/m 16,1 km/h (3 Bft) 97,87 %
16.03.2023 03:50 2,9 C 2,2 C -1,1 C 83 % 1018,1 hPa 0,0 l/m 0 min 0 min 0 W/m 16,1 km/h (3 Bft) 95,74 %
16.03.2023 03:52 2,9 C 2,2 C -1,1 C 83 % 1018,1 hPa 0,0 l/m 0 min 0 min 0 W/m 16,1 km/h (3 Bft) 97,87 %
16.03.2023 03:54 2,9 C 2,2 C -1,1 C 83 % 1018,1 hPa 0,0 l/m 0 min 0 min 0 W/m 16,1 km/h (3 Bft) 100,00 %
16.03.2023 03:56 2,9 C 2,2 C -1,1 C 83 % 1018,0 hPa 0,0 l/m 0 min 0 min 0 W/m 22,5 km/h (4 Bft) 100,00 %
16.03.2023 03:58 2,9 C 2,2 C -1,1 C 83 % 1018,0 hPa 0,0 l/m 0 min 0 min 0 W/m 16,1 km/h (3 Bft) 97,83 %
16.03.2023 04:00 2,9 C 2,2 C -1,1 C 83 % 1018,0 hPa 0,0 l/m 0 min 0 min 0 W/m 19,3 km/h (3 Bft) 100,00 %
16.03.2023 04:02 2,9 C 2,2 C -1,1 C 83 % 1017,9 hPa 0,0 l/m 0 min 0 min 0 W/m 16,1 km/h (3 Bft) 100,00 %
16.03.2023 04:04 2,9 C 2,2 C -1,1 C 83 % 1017,9 hPa 0,0 l/m 0 min 0 min 0 W/m 19,3 km/h (3 Bft) 97,87 %
16.03.2023 04:06 2,9 C 2,2 C -1,1 C 83 % 1017,9 hPa 0,0 l/m 0 min 0 min 0 W/m 22,5 km/h (4 Bft) 97,92 %
16.03.2023 04:08 2,9 C 2,2 C -1,1 C 83 % 1017,9 hPa 0,0 l/m 0 min 0 min 0 W/m 12,9 km/h (3 Bft) 100,00 %
16.03.2023 04:10 2,9 C 2,2 C -1,1 C 83 % 1017,8 hPa 0,0 l/m 0 min 0 min 0 W/m 19,3 km/h (3 Bft) 97,87 %
16.03.2023 04:12 2,9 C 2,2 C -1,1 C 83 % 1017,8 hPa 0,0 l/m 0 min 0 min 0 W/m 19,3 km/h (3 Bft) 100,00 %
16.03.2023 04:14 2,9 C 2,2 C -1,1 C 83 % 1017,8 hPa 0,0 l/m 0 min 0 min 0 W/m 22,5 km/h (4 Bft) 97,87 %
16.03.2023 04:16 2,9 C 2,2 C -1,1 C 83 % 1017,9 hPa 0,0 l/m 0 min 0 min 0 W/m 19,3 km/h (3 Bft) 97,87 %
16.03.2023 04:18 2,9 C 2,2 C -1,1 C 83 % 1017,9 hPa 0,0 l/m 0 min 0 min 0 W/m 12,9 km/h (3 Bft) 100,00 %
16.03.2023 04:20 2,9 C 2,2 C -1,1 C 83 % 1017,8 hPa 0,0 l/m 0 min 0 min 0 W/m 12,9 km/h (3 Bft) 97,87 %
16.03.2023 04:22 2,9 C 2,2 C -1,1 C 83 % 1017,8 hPa 0,0 l/m 0 min 0 min 0 W/m 19,3 km/h (3 Bft) 100,00 %
16.03.2023 04:24 2,9 C 2,2 C -1,1 C 83 % 1017,8 hPa 0,0 l/m 0 min 0 min 0 W/m 12,9 km/h (3 Bft) 100,00 %
16.03.2023 04:26 2,9 C 2,2 C -1,1 C 83 % 1017,8 hPa 0,0 l/m 0 min 0 min 0 W/m 22,5 km/h (4 Bft) 100,00 %
16.03.2023 04:28 2,9 C 2,2 C -1,1 C 83 % 1017,8 hPa 0,0 l/m 0 min 0 min 0 W/m 16,1 km/h (3 Bft) 97,87 %
16.03.2023 04:30 2,9 C 2,2 C -1,1 C 83 % 1017,7 hPa 0,0 l/m 0 min 0 min 0 W/m 19,3 km/h (3 Bft) 95,65 %
16.03.2023 04:32 2,9 C 2,2 C -1,1 C 83 % 1017,8 hPa 0,0 l/m 0 min 0 min 0 W/m 19,3 km/h (3 Bft) 97,87 %
16.03.2023 04:34 2,9 C 2,2 C -1,1 C 83 % 1017,7 hPa 0,0 l/m 0 min 0 min 0 W/m 16,1 km/h (3 Bft) 97,87 %
16.03.2023 04:36 2,9 C 2,2 C -1,1 C 83 % 1017,7 hPa 0,0 l/m 0 min 0 min 0 W/m 12,9 km/h (3 Bft) 95,74 %
16.03.2023 04:38 2,9 C 2,2 C -1,1 C 83 % 1017,8 hPa 0,0 l/m 0 min 0 min 0 W/m 16,1 km/h (3 Bft) 95,74 %
16.03.2023 04:40 2,9 C 2,2 C -1,1 C 83 % 1017,8 hPa 0,0 l/m 0 min 0 min 0 W/m 22,5 km/h (4 Bft) 93,62 %
16.03.2023 04:42 2,9 C 2,2 C -1,1 C 83 % 1017,8 hPa 0,0 l/m 0 min 0 min 0 W/m 25,7 km/h (4 Bft) 93,62 %
16.03.2023 04:44 2,9 C 2,2 C -1,1 C 83 % 1017,8 hPa 0,0 l/m 0 min 0 min 0 W/m 16,1 km/h (3 Bft) 95,65 %
16.03.2023 04:46 2,9 C 2,2 C -1,1 C 83 % 1017,8 hPa 0,0 l/m 0 min 0 min 0 W/m 19,3 km/h (3 Bft) 95,74 %
16.03.2023 04:48 2,9 C 2,2 C -1,1 C 83 % 1017,8 hPa 0,0 l/m 0 min 0 min 0 W/m 16,1 km/h (3 Bft) 95,74 %
16.03.2023 04:50 2,9 C 2,2 C -1,1 C 83 % 1017,8 hPa 0,0 l/m 0 min 0 min 0 W/m 16,1 km/h (3 Bft) 93,62 %
16.03.2023 04:52 2,9 C 2,2 C -1,1 C 83 % 1017,8 hPa 0,0 l/m 0 min 0 min 0 W/m 16,1 km/h (3 Bft) 95,74 %
16.03.2023 04:54 2,9 C 2,2 C -1,1 C 83 % 1017,8 hPa 0,0 l/m 0 min 0 min 0 W/m 19,3 km/h (3 Bft) 93,62 %
16.03.2023 04:56 2,9 C 2,2 C -1,1 C 83 % 1017,8 hPa 0,0 l/m 0 min 0 min 0 W/m 22,5 km/h (4 Bft) 93,62 %
16.03.2023 04:58 2,9 C 2,8 C -1,1 C 83 % 1017,8 hPa 0,0 l/m 0 min 0 min 0 W/m 19,3 km/h (3 Bft) 95,74 %
16.03.2023 05:00 3,0 C 2,8 C -1,1 C 83 % 1017,8 hPa 0,0 l/m 0 min 0 min 0 W/m 22,5 km/h (4 Bft) 97,83 %
16.03.2023 05:02 3,0 C 2,8 C -1,1 C 83 % 1017,8 hPa 0,0 l/m 0 min 0 min 0 W/m 16,1 km/h (3 Bft) 97,87 %
16.03.2023 05:04 3,0 C 2,8 C -1,1 C 83 % 1017,8 hPa 0,0 l/m 0 min 0 min 0 W/m 19,3 km/h (3 Bft) 100,00 %
16.03.2023 05:06 3,1 C 2,8 C -1,1 C 83 % 1017,8 hPa 0,0 l/m 0 min 0 min 0 W/m 19,3 km/h (3 Bft) 98,18 %
16.03.2023 05:08 3,1 C 2,8 C -1,1 C 83 % 1017,8 hPa 0,0 l/m 0 min 0 min 0 W/m 19,3 km/h (3 Bft) 97,83 %
16.03.2023 05:10 3,1 C 2,8 C -1,1 C 83 % 1017,8 hPa 0,0 l/m 0 min 0 min 0 W/m 16,1 km/h (3 Bft) 97,92 %
16.03.2023 05:12 3,1 C 2,8 C -1,1 C 83 % 1017,8 hPa 0,0 l/m 0 min 0 min 0 W/m 12,9 km/h (3 Bft) 95,74 %
16.03.2023 05:14 3,1 C 2,8 C -1,1 C 83 % 1017,8 hPa 0,0 l/m 0 min 0 min 0 W/m 22,5 km/h (4 Bft) 97,14 %
16.03.2023 05:16 3,1 C 2,8 C -1,1 C 83 % 1017,8 hPa 0,0 l/m 0 min 0 min 0 W/m 12,9 km/h (3 Bft) 96,00 %
16.03.2023 05:18 3,1 C 2,8 C -1,1 C 83 % 1017,7 hPa 0,0 l/m 0 min 0 min 0 W/m 12,9 km/h (3 Bft) 100,00 %
16.03.2023 05:20 3,1 C 2,8 C -1,1 C 83 % 1017,6 hPa 0,0 l/m 0 min 0 min 0 W/m 16,1 km/h (3 Bft) 100,00 %
16.03.2023 05:22 3,1 C 2,8 C -1,1 C 83 % 1017,6 hPa 0,0 l/m 0 min 0 min 0 W/m 19,3 km/h (3 Bft) 100,00 %
16.03.2023 05:24 3,1 C 2,8 C -1,1 C 83 % 1017,6 hPa 0,0 l/m 0 min 0 min 0 W/m 16,1 km/h (3 Bft) 100,00 %
16.03.2023 05:26 3,1 C 2,8 C -1,1 C 83 % 1017,5 hPa 0,0 l/m 0 min 0 min 0 W/m 16,1 km/h (3 Bft) 100,00 %
16.03.2023 05:28 3,1 C 2,8 C -1,1 C 82 % 1017,5 hPa 0,0 l/m 0 min 0 min 0 W/m 19,3 km/h (3 Bft) 100,00 %
16.03.2023 05:30 3,1 C 2,8 C -1,1 C 82 % 1017,5 hPa 0,0 l/m 0 min 0 min 0 W/m 19,3 km/h (3 Bft) 100,00 %
16.03.2023 05:32 3,1 C 2,8 C -1,1 C 82 % 1017,5 hPa 0,0 l/m 0 min 0 min 0 W/m 19,3 km/h (3 Bft) 100,00 %
16.03.2023 05:34 3,1 C 2,8 C -1,1 C 82 % 1017,5 hPa 0,0 l/m 0 min 0 min 0 W/m 16,1 km/h (3 Bft) 100,00 %
16.03.2023 05:36 3,1 C 2,8 C -1,1 C 82 % 1017,4 hPa 0,0 l/m 0 min 0 min 0 W/m 19,3 km/h (3 Bft) 100,00 %
16.03.2023 05:38 3,1 C 2,8 C -1,1 C 82 % 1017,4 hPa 0,0 l/m 0 min 0 min 0 W/m 19,3 km/h (3 Bft) 100,00 %
16.03.2023 05:40 3,1 C 2,8 C -1,1 C 82 % 1017,4 hPa 0,0 l/m 0 min 0 min 0 W/m 19,3 km/h (3 Bft) 100,00 %
16.03.2023 05:42 3,1 C 2,8 C -1,1 C 82 % 1017,4 hPa 0,0 l/m 0 min 0 min 0 W/m 19,3 km/h (3 Bft) 100,00 %
16.03.2023 05:44 3,1 C 2,8 C -1,1 C 82 % 1017,4 hPa 0,0 l/m 0 min 0 min 0 W/m 22,5 km/h (4 Bft) 100,00 %
16.03.2023 05:46 3,1 C 2,8 C -1,1 C 82 % 1017,4 hPa 0,0 l/m 0 min 0 min 0 W/m 19,3 km/h (3 Bft) 100,00 %
16.03.2023 05:48 3,1 C 2,8 C -0,6 C 82 % 1017,4 hPa 0,0 l/m 0 min 0 min 0 W/m 22,5 km/h (4 Bft) 100,00 %
16.03.2023 05:50 3,2 C 2,8 C -0,6 C 82 % 1017,4 hPa 0,0 l/m 0 min 0 min 0 W/m 12,9 km/h (3 Bft) 97,87 %
16.03.2023 05:52 3,2 C 2,8 C -0,6 C 82 % 1017,4 hPa 0,0 l/m 0 min 0 min 0 W/m 19,3 km/h (3 Bft) 100,00 %
16.03.2023 05:54 3,2 C 2,8 C -1,1 C 82 % 1017,4 hPa 0,0 l/m 0 min 0 min 0 W/m 12,9 km/h (3 Bft) 100,00 %
16.03.2023 05:56 3,2 C 2,8 C -1,1 C 82 % 1017,4 hPa 0,0 l/m 0 min 0 min 0 W/m 16,1 km/h (3 Bft) 100,00 %
16.03.2023 05:58 3,1 C 2,8 C -1,1 C 82 % 1017,3 hPa 0,0 l/m 0 min 0 min 0 W/m 16,1 km/h (3 Bft) 100,00 %
16.03.2023 06:00 3,2 C 2,8 C -1,1 C 82 % 1017,4 hPa 0,0 l/m 0 min 0 min 0 W/m 12,9 km/h (3 Bft) 97,87 %
16.03.2023 06:02 3,2 C 2,8 C -1,1 C 82 % 1017,3 hPa 0,0 l/m 0 min 0 min 0 W/m 19,3 km/h (3 Bft) 97,87 %
16.03.2023 06:04 3,2 C 2,8 C -1,1 C 82 % 1017,3 hPa 0,0 l/m 0 min 0 min 0 W/m 16,1 km/h (3 Bft) 100,00 %
16.03.2023 06:07 3,1 C 2,8 C -1,1 C 82 % 1017,3 hPa 0,0 l/m 0 min 0 min 0 W/m 19,3 km/h (3 Bft) 97,14 %
16.03.2023 06:08 3,1 C 2,8 C -1,1 C 83 % 1017,3 hPa 0,0 l/m 0 min 0 min 0 W/m 19,3 km/h (3 Bft) 100,00 %
16.03.2023 06:12 3,1 C 2,8 C -1,1 C 83 % 1017,3 hPa 0,0 l/m 0 min 0 min 0 W/m 19,3 km/h (3 Bft) 96,43 %
16.03.2023 06:14 3,1 C 2,8 C -1,1 C 83 % 1017,3 hPa 0,0 l/m 0 min 0 min 0 W/m 12,9 km/h (3 Bft) 95,74 %
16.03.2023 06:16 3,1 C 2,8 C -1,1 C 83 % 1017,3 hPa 0,0 l/m 0 min 0 min 0 W/m 16,1 km/h (3 Bft) 97,87 %
16.03.2023 06:18 3,1 C 2,8 C -1,1 C 83 % 1017,4 hPa 0,0 l/m 0 min 0 min 0 W/m 16,1 km/h (3 Bft) 97,87 %
16.03.2023 06:20 3,1 C 2,8 C -1,1 C 83 % 1017,3 hPa 0,0 l/m 0 min 0 min 0 W/m 12,9 km/h (3 Bft) 97,87 %
16.03.2023 06:22 3,1 C 2,8 C -1,1 C 83 % 1017,4 hPa 0,0 l/m 0 min 0 min 0 W/m 16,1 km/h (3 Bft) 95,74 %
16.03.2023 06:24 3,1 C 2,8 C -0,6 C 83 % 1017,3 hPa 0,0 l/m 0 min 0 min 0 W/m 12,9 km/h (3 Bft) 95,65 %
16.03.2023 06:26 3,1 C 2,8 C -1,1 C 83 % 1017,3 hPa 0,0 l/m 0 min 0 min 0 W/m 19,3 km/h (3 Bft) 95,74 %
16.03.2023 06:28 3,1 C 2,8 C -1,1 C 83 % 1017,3 hPa 0,0 l/m 0 min 0 min 0 W/m 19,3 km/h (3 Bft) 93,62 %
16.03.2023 06:30 3,1 C 2,8 C -1,1 C 82 % 1017,3 hPa 0,0 l/m 0 min 0 min 0 W/m 16,1 km/h (3 Bft) 95,74 %
16.03.2023 06:32 3,1 C 2,8 C -1,1 C 82 % 1017,3 hPa 0,0 l/m 0 min 0 min 0 W/m 16,1 km/h (3 Bft) 95,74 %
16.03.2023 06:34 3,1 C 2,8 C -1,1 C 82 % 1017,3 hPa 0,0 l/m 0 min 0 min 0 W/m 12,9 km/h (3 Bft) 95,74 %
16.03.2023 06:36 3,1 C 2,8 C -1,1 C 83 % 1017,3 hPa 0,0 l/m 0 min 0 min 0 W/m 16,1 km/h (3 Bft) 95,74 %
16.03.2023 06:38 3,1 C 2,8 C -1,1 C 83 % 1017,3 hPa 0,0 l/m 0 min 0 min 0 W/m 16,1 km/h (3 Bft) 95,65 %
16.03.2023 06:40 3,1 C 2,8 C -1,1 C 83 % 1017,3 hPa 0,0 l/m 0 min 0 min 0 W/m 19,3 km/h (3 Bft) 95,74 %
16.03.2023 06:42 3,1 C 2,8 C -1,1 C 83 % 1017,2 hPa 0,0 l/m 0 min 0 min 0 W/m 19,3 km/h (3 Bft) 93,62 %
16.03.2023 06:44 3,1 C 2,8 C -1,1 C 83 % 1017,2 hPa 0,0 l/m 0 min 0 min 0 W/m 22,5 km/h (4 Bft) 93,62 %
16.03.2023 06:46 3,1 C 2,8 C -1,1 C 83 % 1017,2 hPa 0,0 l/m 0 min 0 min 0 W/m 19,3 km/h (3 Bft) 91,49 %
16.03.2023 06:48 3,1 C 2,8 C -1,1 C 83 % 1017,2 hPa 0,0 l/m 0 min 0 min 0 W/m 22,5 km/h (4 Bft) 95,74 %
16.03.2023 06:50 3,1 C 2,8 C -1,1 C 83 % 1017,3 hPa 0,0 l/m 0 min 0 min 0 W/m 16,1 km/h (3 Bft) 95,74 %
16.03.2023 06:52 3,1 C 2,8 C -1,1 C 83 % 1017,3 hPa 0,0 l/m 0 min 0 min 2 W/m 22,5 km/h (4 Bft) 93,48 %
16.03.2023 06:54 3,1 C 2,8 C -1,1 C 83 % 1017,3 hPa 0,0 l/m 0 min 0 min 5 W/m 19,3 km/h (3 Bft) 95,74 %
16.03.2023 06:56 3,2 C 2,8 C -0,6 C 83 % 1017,3 hPa 0,0 l/m 0 min 0 min 5 W/m 16,1 km/h (3 Bft) 95,74 %
16.03.2023 06:58 3,2 C 2,8 C -0,6 C 83 % 1017,3 hPa 0,0 l/m 0 min 0 min 7 W/m 16,1 km/h (3 Bft) 97,87 %
16.03.2023 07:00 3,2 C 2,8 C -0,6 C 83 % 1017,3 hPa 0,0 l/m 0 min 0 min 7 W/m 19,3 km/h (3 Bft) 100,00 %
16.03.2023 07:02 3,2 C 2,8 C -0,6 C 83 % 1017,3 hPa 0,0 l/m 0 min 0 min 9 W/m 25,7 km/h (4 Bft) 95,74 %
16.03.2023 07:04 3,2 C 2,8 C -0,6 C 83 % 1017,3 hPa 0,0 l/m 0 min 0 min 11 W/m 22,5 km/h (4 Bft) 97,92 %
16.03.2023 07:06 3,2 C 2,8 C -0,6 C 83 % 1017,3 hPa 0,0 l/m 0 min 0 min 13 W/m 19,3 km/h (3 Bft) 95,74 %
16.03.2023 07:08 3,2 C 2,8 C -0,6 C 83 % 1017,3 hPa 0,0 l/m 0 min 0 min 17 W/m 19,3 km/h (3 Bft) 95,74 %
16.03.2023 07:10 3,2 C 2,8 C -0,6 C 83 % 1017,3 hPa 0,0 l/m 0 min 0 min 20 W/m 16,1 km/h (3 Bft) 95,74 %
16.03.2023 07:12 3,2 C 2,8 C -0,6 C 83 % 1017,3 hPa 0,0 l/m 0 min 0 min 25 W/m 19,3 km/h (3 Bft) 97,87 %
16.03.2023 07:14 3,2 C 2,8 C -0,6 C 83 % 1017,3 hPa 0,0 l/m 2 min 0 min 30 W/m 16,1 km/h (3 Bft) 95,74 %
16.03.2023 07:16 3,2 C 2,8 C -0,6 C 83 % 1017,3 hPa 0,0 l/m 2 min 0 min 34 W/m 22,5 km/h (4 Bft) 95,65 %
16.03.2023 07:18 3,2 C 2,8 C -0,6 C 83 % 1017,3 hPa 0,0 l/m 2 min 0 min 35 W/m 16,1 km/h (3 Bft) 97,87 %
16.03.2023 07:20 3,3 C 2,8 C -0,6 C 83 % 1017,3 hPa 0,0 l/m 0 min 0 min 35 W/m 12,9 km/h (3 Bft) 97,87 %
16.03.2023 07:22 3,3 C 2,8 C -0,6 C 83 % 1017,3 hPa 0,0 l/m 0 min 0 min 33 W/m 19,3 km/h (3 Bft) 97,87 %
16.03.2023 07:24 3,3 C 2,8 C -0,6 C 83 % 1017,4 hPa 0,0 l/m 0 min 0 min 32 W/m 16,1 km/h (3 Bft) 97,87 %
16.03.2023 07:26 3,3 C 2,8 C -0,6 C 83 % 1017,4 hPa 0,0 l/m 0 min 0 min 33 W/m 19,3 km/h (3 Bft) 97,87 %
16.03.2023 07:28 3,3 C 2,8 C -0,6 C 83 % 1017,4 hPa 0,0 l/m 0 min 0 min 36 W/m 16,1 km/h (3 Bft) 97,87 %
16.03.2023 07:30 3,3 C 2,8 C -0,6 C 83 % 1017,4 hPa 0,0 l/m 0 min 0 min 40 W/m 12,9 km/h (3 Bft) 97,83 %
16.03.2023 07:32 3,4 C 3,3 C -0,6 C 83 % 1017,4 hPa 0,0 l/m 0 min 0 min 43 W/m 12,9 km/h (3 Bft) 97,87 %
16.03.2023 07:34 3,4 C 3,3 C -0,6 C 83 % 1017,3 hPa 0,0 l/m 0 min 0 min 46 W/m 16,1 km/h (3 Bft) 97,87 %
16.03.2023 07:36 3,4 C 3,3 C -0,6 C 83 % 1017,4 hPa 0,0 l/m 0 min 0 min 44 W/m 22,5 km/h (4 Bft) 97,87 %
16.03.2023 07:38 3,4 C 3,3 C -0,6 C 83 % 1017,4 hPa 0,0 l/m 0 min 0 min 40 W/m 22,5 km/h (4 Bft) 97,87 %
16.03.2023 07:40 3,4 C 3,3 C -0,6 C 83 % 1017,4 hPa 0,0 l/m 0 min 0 min 39 W/m 16,1 km/h (3 Bft) 97,87 %
16.03.2023 07:42 3,5 C 3,3 C -0,6 C 83 % 1017,4 hPa 0,0 l/m 0 min 0 min 38 W/m 12,9 km/h (3 Bft) 97,87 %
16.03.2023 07:44 3,5 C 3,3 C -0,6 C 83 % 1017,4 hPa 0,0 l/m 0 min 0 min 39 W/m 22,5 km/h (4 Bft) 100,00 %
16.03.2023 07:46 3,6 C 3,3 C -0,6 C 83 % 1017,4 hPa 0,0 l/m 0 min 0 min 42 W/m 16,1 km/h (3 Bft) 100,00 %
16.03.2023 07:48 3,6 C 3,3 C 0,0 C 83 % 1017,4 hPa 0,0 l/m 0 min 0 min 44 W/m 12,9 km/h (3 Bft) 97,87 %
16.03.2023 07:50 3,6 C 3,3 C 0,0 C 83 % 1017,4 hPa 0,0 l/m 0 min 0 min 43 W/m 19,3 km/h (3 Bft) 100,00 %
16.03.2023 07:52 3,6 C 3,3 C 0,0 C 83 % 1017,4 hPa 0,0 l/m 0 min 0 min 42 W/m 25,7 km/h (4 Bft) 100,00 %
16.03.2023 07:54 3,6 C 3,3 C 0,0 C 83 % 1017,4 hPa 0,0 l/m 0 min 0 min 42 W/m 12,9 km/h (3 Bft) 95,00 %
16.03.2023 07:56 3,7 C 3,3 C 0,0 C 83 % 1017,4 hPa 0,0 l/m 0 min 0 min 42 W/m 19,3 km/h (3 Bft) 91,30 %
16.03.2023 07:58 3,7 C 3,3 C 0,0 C 83 % 1017,5 hPa 0,0 l/m 0 min 0 min 42 W/m 25,7 km/h (4 Bft) 95,74 %
16.03.2023 08:03 3,8 C 3,3 C 0,0 C 83 % 1017,4 hPa 0,0 l/m 0 min 0 min 42 W/m 22,5 km/h (4 Bft) 95,24 %
16.03.2023 08:04 3,8 C 3,3 C 0,0 C 82 % 1017,4 hPa 0,0 l/m 0 min 0 min 42 W/m 12,9 km/h (3 Bft) 100,00 %
16.03.2023 08:06 3,8 C 3,3 C 0,0 C 82 % 1017,5 hPa 0,0 l/m 0 min 0 min 42 W/m 16,1 km/h (3 Bft) 97,87 %
16.03.2023 08:08 3,8 C 3,3 C 0,0 C 82 % 1017,5 hPa 0,0 l/m 0 min 0 min 41 W/m 16,1 km/h (3 Bft) 100,00 %
16.03.2023 08:10 3,8 C 3,3 C 0,0 C 82 % 1017,6 hPa 0,0 l/m 0 min 0 min 40 W/m 22,5 km/h (4 Bft) 100,00 %
16.03.2023 08:12 3,8 C 3,3 C 0,0 C 82 % 1017,5 hPa 0,0 l/m 0 min 0 min 42 W/m 16,1 km/h (3 Bft) 97,87 %
16.03.2023 08:14 3,9 C 3,3 C 0,0 C 82 % 1017,5 hPa 0,0 l/m 0 min 0 min 47 W/m 29,0 km/h (5 Bft) 100,00 %
16.03.2023 08:16 3,9 C 3,3 C 0,0 C 82 % 1017,5 hPa 0,0 l/m 0 min 0 min 52 W/m 25,7 km/h (4 Bft) 100,00 %
16.03.2023 08:18 3,9 C 3,3 C 0,0 C 82 % 1017,6 hPa 0,0 l/m 0 min 0 min 54 W/m 22,5 km/h (4 Bft) 97,87 %
16.03.2023 08:20 3,9 C 3,9 C 0,0 C 82 % 1017,6 hPa 0,0 l/m 0 min 0 min 56 W/m 22,5 km/h (4 Bft) 97,87 %
16.03.2023 08:22 3,9 C 3,9 C 0,0 C 82 % 1017,6 hPa 0,0 l/m 0 min 0 min 63 W/m 25,7 km/h (4 Bft) 97,87 %
16.03.2023 08:24 3,9 C 3,9 C 0,0 C 82 % 1017,6 hPa 0,0 l/m 0 min 0 min 75 W/m 16,1 km/h (3 Bft) 95,65 %
16.03.2023 08:26 4,0 C 3,9 C 0,0 C 82 % 1017,6 hPa 0,0 l/m 0 min 0 min 86 W/m 16,1 km/h (3 Bft) 95,74 %
16.03.2023 08:28 4,0 C 3,9 C 0,0 C 82 % 1017,6 hPa 0,0 l/m 0 min 0 min 96 W/m 22,5 km/h (4 Bft) 93,62 %
16.03.2023 08:30 4,1 C 3,9 C 0,0 C 82 % 1017,6 hPa 0,0 l/m 0 min 0 min 100 W/m 22,5 km/h (4 Bft) 97,87 %
16.03.2023 08:32 4,1 C 3,9 C 0,6 C 82 % 1017,7 hPa 0,0 l/m 0 min 0 min 101 W/m 25,7 km/h (4 Bft) 95,74 %
16.03.2023 08:34 4,1 C 3,9 C 0,6 C 82 % 1017,7 hPa 0,0 l/m 0 min 0 min 98 W/m 16,1 km/h (3 Bft) 97,87 %
16.03.2023 08:36 4,2 C 4,4 C 0,6 C 82 % 1017,7 hPa 0,0 l/m 0 min 0 min 98 W/m 19,3 km/h (3 Bft) 97,87 %
16.03.2023 08:38 4,2 C 3,9 C 0,6 C 82 % 1017,7 hPa 0,0 l/m 0 min 0 min 100 W/m 22,5 km/h (4 Bft) 97,83 %
16.03.2023 08:40 4,2 C 4,4 C 0,6 C 82 % 1017,7 hPa 0,0 l/m 0 min 0 min 102 W/m 16,1 km/h (3 Bft) 97,87 %
16.03.2023 08:42 4,3 C 4,4 C 0,6 C 82 % 1017,6 hPa 0,0 l/m 0 min 0 min 100 W/m 22,5 km/h (4 Bft) 97,87 %
16.03.2023 08:44 4,3 C 4,4 C 0,6 C 82 % 1017,7 hPa 0,0 l/m 0 min 0 min 98 W/m 19,3 km/h (3 Bft) 95,74 %
16.03.2023 08:46 4,3 C 4,4 C 0,6 C 82 % 1017,6 hPa 0,0 l/m 0 min 0 min 98 W/m 22,5 km/h (4 Bft) 97,87 %
16.03.2023 08:48 4,3 C 4,4 C 0,6 C 82 % 1017,6 hPa 0,0 l/m 0 min 0 min 100 W/m 16,1 km/h (3 Bft) 97,87 %
16.03.2023 08:50 4,4 C 4,4 C 0,6 C 82 % 1017,6 hPa 0,0 l/m 0 min 0 min 98 W/m 22,5 km/h (4 Bft) 100,00 %
16.03.2023 08:52 4,4 C 4,4 C 0,6 C 82 % 1017,6 hPa 0,0 l/m 0 min 0 min 100 W/m 25,7 km/h (4 Bft) 100,00 %
16.03.2023 08:54 4,4 C 4,4 C 0,6 C 81 % 1017,6 hPa 0,0 l/m 0 min 0 min 109 W/m 19,3 km/h (3 Bft) 91,49 %
16.03.2023 08:56 4,5 C 4,4 C 0,6 C 82 % 1017,6 hPa 0,0 l/m 0 min 0 min 122 W/m 19,3 km/h (3 Bft) 100,00 %
16.03.2023 08:58 4,6 C 4,4 C 0,6 C 81 % 1017,4 hPa 0,0 l/m 0 min 0 min 136 W/m 22,5 km/h (4 Bft) 100,00 %
16.03.2023 09:00 4,6 C 5,0 C 1,1 C 81 % 1017,5 hPa 0,0 l/m 0 min 0 min 147 W/m 16,1 km/h (3 Bft) 95,74 %
16.03.2023 09:02 4,6 C 5,0 C 1,1 C 81 % 1017,5 hPa 0,0 l/m 0 min 0 min 156 W/m 16,1 km/h (3 Bft) 95,74 %
16.03.2023 09:04 4,7 C 5,0 C 1,1 C 81 % 1017,4 hPa 0,0 l/m 0 min 0 min 157 W/m 22,5 km/h (4 Bft) 97,87 %
16.03.2023 09:06 4,7 C 5,0 C 1,1 C 81 % 1017,3 hPa 0,0 l/m 0 min 0 min 150 W/m 22,5 km/h (4 Bft) 97,83 %
16.03.2023 09:08 4,8 C 5,0 C 1,1 C 81 % 1017,3 hPa 0,0 l/m 0 min 0 min 136 W/m 22,5 km/h (4 Bft) 97,87 %
16.03.2023 09:10 4,8 C 5,0 C 1,1 C 81 % 1017,3 hPa 0,0 l/m 0 min 0 min 122 W/m 25,7 km/h (4 Bft) 97,87 %
16.03.2023 09:12 4,8 C 5,0 C 1,1 C 81 % 1017,4 hPa 0,0 l/m 0 min 0 min 111 W/m 25,7 km/h (4 Bft) 93,62 %
16.03.2023 09:14 4,8 C 5,0 C 1,1 C 81 % 1017,4 hPa 0,0 l/m 0 min 0 min 107 W/m 25,7 km/h (4 Bft) 93,62 %
16.03.2023 09:16 4,9 C 5,0 C 1,1 C 81 % 1017,5 hPa 0,0 l/m 0 min 0 min 115 W/m 16,1 km/h (3 Bft) 97,87 %
16.03.2023 09:18 4,9 C 5,0 C 1,1 C 81 % 1017,4 hPa 0,0 l/m 0 min 0 min 122 W/m 16,1 km/h (3 Bft) 97,87 %
16.03.2023 09:20 4,9 C 5,0 C 1,1 C 81 % 1017,4 hPa 0,0 l/m 0 min 0 min 123 W/m 29,0 km/h (5 Bft) 95,65 %
16.03.2023 09:22 5,0 C 5,0 C 1,1 C 81 % 1017,4 hPa 0,0 l/m 0 min 0 min 124 W/m 19,3 km/h (3 Bft) 95,74 %
16.03.2023 09:24 5,0 C 5,0 C 1,1 C 80 % 1017,4 hPa 0,0 l/m 0 min 0 min 121 W/m 22,5 km/h (4 Bft) 97,87 %
16.03.2023 09:26 5,1 C 5,0 C 1,1 C 80 % 1017,4 hPa 0,0 l/m 0 min 0 min 123 W/m 19,3 km/h (3 Bft) 95,74 %
16.03.2023 09:28 5,1 C 5,0 C 1,1 C 81 % 1017,4 hPa 0,0 l/m 0 min 0 min 128 W/m 19,3 km/h (3 Bft) 97,87 %
16.03.2023 09:30 5,1 C 5,0 C 1,1 C 80 % 1017,6 hPa 0,0 l/m 0 min 0 min 131 W/m 19,3 km/h (3 Bft) 95,74 %
16.03.2023 09:32 5,1 C 5,0 C 1,1 C 80 % 1017,5 hPa 0,0 l/m 0 min 0 min 129 W/m 22,5 km/h (4 Bft) 95,74 %
16.03.2023 09:34 5,2 C 5,0 C 1,1 C 80 % 1017,6 hPa 0,0 l/m 0 min 0 min 125 W/m 22,5 km/h (4 Bft) 95,65 %
16.03.2023 09:36 5,2 C 5,0 C 1,1 C 80 % 1017,5 hPa 0,0 l/m 0 min 0 min 124 W/m 16,1 km/h (3 Bft) 93,62 %
16.03.2023 09:38 5,2 C 5,0 C 1,1 C 80 % 1017,6 hPa 0,0 l/m 0 min 0 min 126 W/m 22,5 km/h (4 Bft) 95,74 %
16.03.2023 09:40 5,2 C 5,0 C 1,1 C 81 % 1017,5 hPa 0,0 l/m 0 min 0 min 132 W/m 22,5 km/h (4 Bft) 95,74 %
16.03.2023 09:42 5,2 C 5,0 C 1,1 C 81 % 1017,5 hPa 0,0 l/m 0 min 0 min 140 W/m 25,7 km/h (4 Bft) 95,74 %
16.03.2023 09:44 5,3 C 5,0 C 1,1 C 80 % 1017,5 hPa 0,0 l/m 0 min 0 min 142 W/m 22,5 km/h (4 Bft) 95,74 %
16.03.2023 09:46 5,3 C 5,0 C 1,1 C 80 % 1017,6 hPa 0,0 l/m 0 min 0 min 137 W/m 12,9 km/h (3 Bft) 97,83 %
16.03.2023 09:48 5,3 C 5,0 C 1,1 C 81 % 1017,6 hPa 0,0 l/m 0 min 0 min 135 W/m 19,3 km/h (3 Bft) 93,62 %
16.03.2023 09:50 5,3 C 5,0 C 1,7 C 81 % 1017,6 hPa 0,0 l/m 0 min 0 min 134 W/m 19,3 km/h (3 Bft) 95,74 %
16.03.2023 09:52 5,3 C 5,6 C 1,7 C 81 % 1017,6 hPa 0,0 l/m 0 min 0 min 132 W/m 19,3 km/h (3 Bft) 91,49 %
16.03.2023 09:54 5,4 C 5,6 C 1,7 C 81 % 1017,5 hPa 0,0 l/m 0 min 0 min 134 W/m 19,3 km/h (3 Bft) 97,87 %
16.03.2023 09:56 5,4 C 5,6 C 1,7 C 81 % 1017,4 hPa 0,0 l/m 0 min 0 min 140 W/m 19,3 km/h (3 Bft) 95,74 %
16.03.2023 09:58 5,4 C 5,6 C 1,7 C 81 % 1017,4 hPa 0,0 l/m 0 min 0 min 147 W/m 19,3 km/h (3 Bft) 97,87 %
16.03.2023 10:00 5,5 C 5,6 C 1,7 C 81 % 1017,4 hPa 0,0 l/m 0 min 2 min 158 W/m 19,3 km/h (3 Bft) 97,83 %
16.03.2023 10:02 5,5 C 5,6 C 1,7 C 81 % 1017,4 hPa 0,0 l/m 0 min 0 min 171 W/m 12,9 km/h (3 Bft) 97,87 %
16.03.2023 10:04 5,6 C 5,6 C 1,7 C 81 % 1017,4 hPa 0,0 l/m 0 min 0 min 188 W/m 19,3 km/h (3 Bft) 95,74 %
16.03.2023 10:06 5,6 C 6,1 C 1,7 C 82 % 1017,4 hPa 0,0 l/m 0 min 0 min 205 W/m 22,5 km/h (4 Bft) 97,87 %
16.03.2023 10:08 5,6 C 6,1 C 1,7 C 82 % 1017,4 hPa 0,0 l/m 0 min 0 min 218 W/m 19,3 km/h (3 Bft) 91,43 %
16.03.2023 10:10 5,6 C 6,1 C 1,7 C 81 % 1017,4 hPa 0,0 l/m 0 min 0 min 202 W/m 16,1 km/h (3 Bft) 97,87 %
16.03.2023 10:12 5,7 C 6,1 C 1,7 C 81 % 1017,4 hPa 0,0 l/m 0 min 0 min 181 W/m 16,1 km/h (3 Bft) 97,87 %
16.03.2023 10:14 5,7 C 6,1 C 2,2 C 81 % 1017,5 hPa 0,0 l/m 0 min 0 min 177 W/m 16,1 km/h (3 Bft) 95,74 %
16.03.2023 10:16 5,8 C 6,1 C 2,2 C 81 % 1017,4 hPa 0,0 l/m 0 min 0 min 178 W/m 16,1 km/h (3 Bft) 87,23 %
16.03.2023 10:18 5,8 C 6,1 C 2,2 C 81 % 1017,4 hPa 0,0 l/m 0 min 0 min 178 W/m 16,1 km/h (3 Bft) 63,64 %
16.03.2023 10:20 5,8 C 6,1 C 2,2 C 81 % 1017,4 hPa 0,0 l/m 0 min 0 min 186 W/m 16,1 km/h (3 Bft) 97,87 %
16.03.2023 10:22 5,9 C 6,1 C 2,2 C 81 % 1017,3 hPa 0,0 l/m 0 min 0 min 206 W/m 19,3 km/h (3 Bft) 95,74 %
16.03.2023 10:24 5,9 C 6,1 C 2,2 C 80 % 1017,3 hPa 0,0 l/m 0 min 0 min 228 W/m 16,1 km/h (3 Bft) 97,87 %
16.03.2023 10:26 5,9 C 6,1 C 2,2 C 80 % 1017,2 hPa 0,0 l/m 0 min 0 min 235 W/m 22,5 km/h (4 Bft) 97,87 %
16.03.2023 10:28 6,0 C 6,7 C 2,2 C 80 % 1017,2 hPa 0,0 l/m 0 min 0 min 242 W/m 25,7 km/h (4 Bft) 97,87 %
16.03.2023 10:30 6,1 C 6,7 C 2,2 C 80 % 1017,2 hPa 0,0 l/m 2 min 0 min 249 W/m 22,5 km/h (4 Bft) 97,83 %
16.03.2023 10:32 6,1 C 6,7 C 2,2 C 80 % 1017,1 hPa 0,0 l/m 0 min 0 min 238 W/m 16,1 km/h (3 Bft) 95,74 %
16.03.2023 10:34 6,2 C 6,7 C 2,8 C 80 % 1017,1 hPa 0,0 l/m 0 min 0 min 219 W/m 29,0 km/h (5 Bft) 97,87 %
16.03.2023 10:36 6,2 C 6,7 C 2,8 C 80 % 1017,0 hPa 0,0 l/m 0 min 0 min 205 W/m 19,3 km/h (3 Bft) 97,87 %
16.03.2023 10:38 6,3 C 6,7 C 2,8 C 79 % 1017,0 hPa 0,0 l/m 0 min 0 min 208 W/m 16,1 km/h (3 Bft) 97,87 %
16.03.2023 10:40 6,3 C 6,7 C 2,8 C 79 % 1017,0 hPa 0,0 l/m 0 min 0 min 218 W/m 19,3 km/h (3 Bft) 97,87 %
16.03.2023 10:42 6,4 C 6,7 C 2,8 C 79 % 1017,0 hPa 0,0 l/m 0 min 0 min 220 W/m 16,1 km/h (3 Bft) 97,87 %
16.03.2023 10:44 6,5 C 7,2 C 2,8 C 79 % 1016,9 hPa 0,0 l/m 0 min 0 min 222 W/m 19,3 km/h (3 Bft) 97,83 %
16.03.2023 10:46 6,5 C 7,2 C 2,8 C 78 % 1016,9 hPa 0,0 l/m 0 min 0 min 228 W/m 16,1 km/h (3 Bft) 93,62 %
16.03.2023 10:48 6,6 C 7,2 C 3,3 C 78 % 1016,9 hPa 0,0 l/m 0 min 0 min 221 W/m 19,3 km/h (3 Bft) 97,87 %
16.03.2023 10:50 6,6 C 7,2 C 3,3 C 78 % 1016,9 hPa 0,0 l/m 0 min 0 min 217 W/m 16,1 km/h (3 Bft) 97,87 %
16.03.2023 10:52 6,7 C 7,2 C 3,3 C 77 % 1016,8 hPa 0,0 l/m 0 min 0 min 224 W/m 32,2 km/h (5 Bft) 95,74 %
16.03.2023 10:54 6,8 C 7,2 C 3,3 C 77 % 1016,8 hPa 0,0 l/m 0 min 0 min 225 W/m 19,3 km/h (3 Bft) 97,87 %
16.03.2023 10:56 6,8 C 7,8 C 3,3 C 77 % 1016,8 hPa 0,0 l/m 0 min 0 min 224 W/m 25,7 km/h (4 Bft) 100,00 %
16.03.2023 10:58 6,9 C 7,2 C 3,3 C 77 % 1016,8 hPa 0,0 l/m 0 min 0 min 233 W/m 22,5 km/h (4 Bft) 100,00 %
16.03.2023 11:00 7,0 C 7,8 C 3,3 C 77 % 1016,8 hPa 0,0 l/m 0 min 0 min 254 W/m 16,1 km/h (3 Bft) 97,87 %
16.03.2023 11:02 7,1 C 7,8 C 3,3 C 77 % 1016,8 hPa 0,0 l/m 2 min 0 min 277 W/m 12,9 km/h (3 Bft) 100,00 %
16.03.2023 11:04 7,1 C 7,8 C 3,9 C 76 % 1016,9 hPa 0,0 l/m 2 min 0 min 277 W/m 19,3 km/h (3 Bft) 100,00 %
16.03.2023 11:06 7,2 C 7,8 C 3,9 C 76 % 1016,9 hPa 0,0 l/m 0 min 0 min 256 W/m 22,5 km/h (4 Bft) 100,00 %
16.03.2023 11:08 7,2 C 7,8 C 3,3 C 75 % 1016,8 hPa 0,0 l/m 0 min 0 min 245 W/m 25,7 km/h (4 Bft) 100,00 %
16.03.2023 11:10 7,3 C 7,8 C 3,9 C 75 % 1016,8 hPa 0,0 l/m 0 min 0 min 264 W/m 19,3 km/h (3 Bft) 97,83 %
16.03.2023 11:12 7,3 C 7,8 C 3,9 C 75 % 1016,8 hPa 0,0 l/m 0 min 0 min 271 W/m 25,7 km/h (4 Bft) 100,00 %
16.03.2023 11:14 7,4 C 7,8 C 3,9 C 74 % 1016,8 hPa 0,0 l/m 0 min 0 min 253 W/m 22,5 km/h (4 Bft) 100,00 %
16.03.2023 11:16 7,4 C 8,3 C 3,9 C 74 % 1016,8 hPa 0,0 l/m 0 min 0 min 255 W/m 19,3 km/h (3 Bft) 100,00 %
16.03.2023 11:18 7,6 C 8,3 C 3,9 C 74 % 1016,8 hPa 0,0 l/m 2 min 0 min 288 W/m 32,2 km/h (5 Bft) 100,00 %
16.03.2023 11:20 7,6 C 8,3 C 3,9 C 74 % 1016,8 hPa 0,0 l/m 2 min 0 min 314 W/m 22,5 km/h (4 Bft) 100,00 %
16.03.2023 11:22 7,6 C 8,3 C 3,9 C 73 % 1016,8 hPa 0,0 l/m 2 min 0 min 312 W/m 29,0 km/h (5 Bft) 100,00 %
16.03.2023 11:24 7,7 C 8,3 C 4,4 C 73 % 1016,8 hPa 0,0 l/m 2 min 0 min 302 W/m 25,7 km/h (4 Bft) 100,00 %
16.03.2023 11:26 7,7 C 8,3 C 4,4 C 73 % 1016,7 hPa 0,0 l/m 2 min 0 min 285 W/m 19,3 km/h (3 Bft) 100,00 %
16.03.2023 11:28 7,8 C 8,3 C 4,4 C 73 % 1016,7 hPa 0,0 l/m 2 min 0 min 324 W/m 22,5 km/h (4 Bft) 100,00 %
16.03.2023 11:30 7,8 C 8,3 C 4,4 C 72 % 1016,8 hPa 0,0 l/m 2 min 0 min 361 W/m 32,2 km/h (5 Bft) 100,00 %
16.03.2023 11:32 7,8 C 8,9 C 4,4 C 73 % 1016,7 hPa 0,0 l/m 2 min 0 min 387 W/m 22,5 km/h (4 Bft) 100,00 %
16.03.2023 11:34 7,9 C 9,4 C 4,4 C 73 % 1016,6 hPa 0,0 l/m 2 min 0 min 441 W/m 22,5 km/h (4 Bft) 100,00 %
16.03.2023 11:36 8,0 C 10,0 C 5,0 C 73 % 1016,6 hPa 0,0 l/m 2 min 0 min 511 W/m 22,5 km/h (4 Bft) 95,74 %
16.03.2023 11:38 8,1 C 10,6 C 5,6 C 72 % 1016,5 hPa 0,0 l/m 2 min 0 min 521 W/m 32,2 km/h (5 Bft) 97,83 %
16.03.2023 11:40 8,2 C 10,0 C 5,6 C 72 % 1016,4 hPa 0,0 l/m 2 min 0 min 432 W/m 22,5 km/h (4 Bft) 97,87 %
16.03.2023 11:42 8,3 C 10,0 C 5,0 C 72 % 1016,4 hPa 0,0 l/m 2 min 0 min 360 W/m 25,7 km/h (4 Bft) 95,74 %
16.03.2023 11:44 8,4 C 9,4 C 5,0 C 71 % 1016,3 hPa 0,0 l/m 2 min 0 min 306 W/m 22,5 km/h (4 Bft) 95,74 %
16.03.2023 11:46 8,4 C 9,4 C 5,0 C 71 % 1016,4 hPa 0,0 l/m 2 min 0 min 294 W/m 22,5 km/h (4 Bft) 97,87 %
16.03.2023 11:48 8,4 C 9,4 C 5,0 C 71 % 1016,4 hPa 0,0 l/m 2 min 0 min 312 W/m 22,5 km/h (4 Bft) 97,87 %
16.03.2023 11:50 8,5 C 9,4 C 5,0 C 71 % 1016,3 hPa 0,0 l/m 2 min 0 min 328 W/m 22,5 km/h (4 Bft) 95,74 %
16.03.2023 11:52 8,5 C 9,4 C 5,0 C 71 % 1016,4 hPa 0,0 l/m 2 min 0 min 341 W/m 25,7 km/h (4 Bft) 97,83 %
16.03.2023 11:54 8,5 C 9,4 C 5,0 C 71 % 1016,3 hPa 0,0 l/m 2 min 0 min 371 W/m 29,0 km/h (5 Bft) 97,87 %
16.03.2023 11:56 8,6 C 10,0 C 5,6 C 71 % 1016,3 hPa 0,0 l/m 2 min 0 min 390 W/m 22,5 km/h (4 Bft) 97,87 %
16.03.2023 11:58 8,7 C 10,0 C 5,6 C 71 % 1016,3 hPa 0,0 l/m 2 min 0 min 405 W/m 25,7 km/h (4 Bft) 97,87 %
16.03.2023 12:00 8,7 C 10,6 C 5,6 C 70 % 1016,3 hPa 0,0 l/m 2 min 0 min 428 W/m 25,7 km/h (4 Bft) 95,74 %
16.03.2023 12:02 8,7 C 10,6 C 5,6 C 70 % 1016,2 hPa 0,0 l/m 2 min 0 min 450 W/m 25,7 km/h (4 Bft) 95,74 %
16.03.2023 12:04 8,8 C 10,6 C 6,1 C 70 % 1016,2 hPa 0,0 l/m 2 min 0 min 385 W/m 29,0 km/h (5 Bft) 97,92 %
16.03.2023 12:07 8,9 C 10,0 C 6,1 C 70 % 1016,2 hPa 0,0 l/m 3 min 0 min 322 W/m 29,0 km/h (5 Bft) 95,71 %
16.03.2023 12:08 8,9 C 10,0 C 6,1 C 70 % 1016,2 hPa 0,0 l/m 1 min 0 min 322 W/m 29,0 km/h (5 Bft) 95,65 %
16.03.2023 12:12 9,0 C 10,0 C 5,6 C 70 % 1016,1 hPa 0,0 l/m 0 min 0 min 285 W/m 38,6 km/h (5 Bft) 96,61 %
16.03.2023 12:14 9,1 C 10,0 C 5,6 C 69 % 1016,1 hPa 0,0 l/m 0 min 0 min 274 W/m 25,7 km/h (4 Bft) 95,74 %
16.03.2023 12:16 9,1 C 10,6 C 6,1 C 69 % 1016,1 hPa 0,0 l/m 0 min 0 min 283 W/m 19,3 km/h (3 Bft) 95,74 %
16.03.2023 12:18 9,2 C 10,6 C 6,7 C 69 % 1016,1 hPa 0,0 l/m 2 min 0 min 302 W/m 22,5 km/h (4 Bft) 97,87 %
16.03.2023 12:20 9,3 C 11,7 C 6,7 C 69 % 1016,1 hPa 0,0 l/m 2 min 0 min 302 W/m 29,0 km/h (5 Bft) 97,83 %
16.03.2023 12:22 9,4 C 11,7 C 6,7 C 69 % 1016,0 hPa 0,0 l/m 2 min 0 min 328 W/m 22,5 km/h (4 Bft) 100,00 %
16.03.2023 12:24 9,5 C 11,7 C 6,7 C 69 % 1015,9 hPa 0,0 l/m 2 min 0 min 429 W/m 22,5 km/h (4 Bft) 100,00 %
16.03.2023 12:26 9,6 C 11,1 C 6,7 C 69 % 1016,0 hPa 0,0 l/m 2 min 0 min 358 W/m 32,2 km/h (5 Bft) 97,87 %
16.03.2023 12:28 9,6 C 10,6 C 6,7 C 68 % 1015,9 hPa 0,0 l/m 2 min 0 min 417 W/m 35,4 km/h (5 Bft) 97,87 %
16.03.2023 12:30 9,6 C 10,6 C 6,7 C 68 % 1015,9 hPa 0,0 l/m 2 min 0 min 401 W/m 32,2 km/h (5 Bft) 93,62 %
16.03.2023 12:32 9,6 C 10,6 C 6,7 C 68 % 1016,0 hPa 0,0 l/m 2 min 0 min 435 W/m 22,5 km/h (4 Bft) 95,65 %
16.03.2023 12:34 9,7 C 10,6 C 6,7 C 68 % 1015,9 hPa 0,0 l/m 2 min 0 min 473 W/m 29,0 km/h (5 Bft) 95,74 %
16.03.2023 12:36 9,7 C 11,1 C 6,7 C 68 % 1015,9 hPa 0,0 l/m 2 min 0 min 515 W/m 29,0 km/h (5 Bft) 95,74 %
16.03.2023 12:38 9,8 C 11,7 C 6,7 C 68 % 1015,8 hPa 0,0 l/m 2 min 0 min 462 W/m 19,3 km/h (3 Bft) 95,74 %
16.03.2023 12:40 9,9 C 12,2 C 6,7 C 68 % 1015,8 hPa 0,0 l/m 2 min 0 min 557 W/m 29,0 km/h (5 Bft) 95,74 %
16.03.2023 12:42 9,9 C 12,2 C 6,7 C 68 % 1015,7 hPa 0,0 l/m 2 min 0 min 635 W/m 29,0 km/h (5 Bft) 91,49 %
16.03.2023 12:44 10,0 C 12,2 C 6,1 C 68 % 1015,7 hPa 0,0 l/m 2 min 0 min 624 W/m 25,7 km/h (4 Bft) 95,74 %
16.03.2023 12:46 10,1 C 12,8 C 6,7 C 68 % 1015,7 hPa 0,0 l/m 2 min 0 min 619 W/m 16,1 km/h (3 Bft) 94,34 %
16.03.2023 12:48 10,2 C 13,3 C 6,7 C 68 % 1015,7 hPa 0,0 l/m 2 min 0 min 519 W/m 22,5 km/h (4 Bft) 96,00 %
16.03.2023 12:50 10,3 C 13,9 C 6,7 C 68 % 1015,6 hPa 0,0 l/m 2 min 0 min 648 W/m 22,5 km/h (4 Bft) 95,74 %
16.03.2023 12:52 10,4 C 13,9 C 6,7 C 67 % 1015,6 hPa 0,0 l/m 2 min 0 min 625 W/m 22,5 km/h (4 Bft) 95,65 %
16.03.2023 12:54 10,4 C 13,9 C 6,7 C 67 % 1015,6 hPa 0,0 l/m 2 min 0 min 549 W/m 25,7 km/h (4 Bft) 91,49 %
16.03.2023 12:56 10,5 C 13,3 C 6,7 C 66 % 1015,6 hPa 0,0 l/m 2 min 0 min 500 W/m 22,5 km/h (4 Bft) 95,74 %
16.03.2023 12:58 10,6 C 13,3 C 6,7 C 66 % 1015,5 hPa 0,0 l/m 2 min 0 min 505 W/m 29,0 km/h (5 Bft) 93,62 %
16.03.2023 13:00 10,6 C 13,3 C 6,7 C 66 % 1015,4 hPa 0,0 l/m 2 min 0 min 482 W/m 25,7 km/h (4 Bft) 95,74 %
16.03.2023 13:02 10,6 C 12,8 C 6,7 C 66 % 1015,4 hPa 0,0 l/m 2 min 0 min 398 W/m 25,7 km/h (4 Bft) 95,74 %
16.03.2023 13:04 10,6 C 12,2 C 6,7 C 66 % 1015,3 hPa 0,0 l/m 2 min 0 min 336 W/m 22,5 km/h (4 Bft) 95,74 %
16.03.2023 13:06 10,7 C 11,7 C 6,7 C 66 % 1015,3 hPa 0,0 l/m 2 min 0 min 326 W/m 19,3 km/h (3 Bft) 95,65 %
16.03.2023 13:08 10,7 C 11,1 C 6,7 C 66 % 1015,3 hPa 0,0 l/m 2 min 0 min 307 W/m 29,0 km/h (5 Bft) 95,74 %
16.03.2023 13:10 10,6 C 11,1 C 6,7 C 66 % 1015,2 hPa 0,0 l/m 0 min 0 min 294 W/m 35,4 km/h (5 Bft) 97,87 %
16.03.2023 13:12 10,6 C 11,1 C 6,7 C 66 % 1015,2 hPa 0,0 l/m 2 min 0 min 329 W/m 29,0 km/h (5 Bft) 97,87 %
16.03.2023 13:14 10,6 C 11,1 C 6,7 C 66 % 1015,1 hPa 0,0 l/m 2 min 0 min 334 W/m 29,0 km/h (5 Bft) 97,87 %
16.03.2023 13:16 10,6 C 11,1 C 6,7 C 66 % 1015,1 hPa 0,0 l/m 2 min 0 min 321 W/m 32,2 km/h (5 Bft) 97,87 %
16.03.2023 13:18 10,5 C 10,6 C 6,1 C 66 % 1015,1 hPa 0,0 l/m 2 min 0 min 332 W/m 32,2 km/h (5 Bft) 95,74 %
16.03.2023 13:20 10,5 C 11,1 C 6,7 C 66 % 1015,1 hPa 0,0 l/m 2 min 0 min 358 W/m 32,2 km/h (5 Bft) 95,65 %
16.03.2023 13:22 10,5 C 11,1 C 6,1 C 66 % 1015,1 hPa 0,0 l/m 2 min 0 min 381 W/m 29,0 km/h (5 Bft) 97,22 %
16.03.2023 13:24 10,5 C 11,7 C 6,7 C 66 % 1015,0 hPa 0,0 l/m 2 min 0 min 385 W/m 19,3 km/h (3 Bft) 98,28 %
16.03.2023 13:26 10,5 C 11,1 C 6,7 C 67 % 1014,9 hPa 0,0 l/m 2 min 0 min 349 W/m 25,7 km/h (4 Bft) 95,74 %
16.03.2023 13:28 10,5 C 11,1 C 6,7 C 66 % 1015,0 hPa 0,0 l/m 2 min 0 min 347 W/m 38,6 km/h (5 Bft) 100,00 %
16.03.2023 13:30 10,6 C 11,1 C 6,7 C 67 % 1015,0 hPa 0,0 l/m 2 min 0 min 351 W/m 29,0 km/h (5 Bft) 97,87 %
16.03.2023 13:32 10,6 C 11,1 C 6,7 C 66 % 1015,0 hPa 0,0 l/m 2 min 0 min 341 W/m 32,2 km/h (5 Bft) 100,00 %
16.03.2023 13:34 10,6 C 11,1 C 6,7 C 66 % 1015,0 hPa 0,0 l/m 2 min 0 min 330 W/m 22,5 km/h (4 Bft) 100,00 %
16.03.2023 13:36 10,6 C 11,1 C 6,7 C 66 % 1014,8 hPa 0,0 l/m 2 min 0 min 302 W/m 35,4 km/h (5 Bft) 100,00 %
16.03.2023 13:38 10,6 C 11,1 C 6,7 C 66 % 1014,7 hPa 0,0 l/m 2 min 0 min 294 W/m 25,7 km/h (4 Bft) 100,00 %
16.03.2023 13:40 10,6 C 11,1 C 6,7 C 66 % 1014,7 hPa 0,0 l/m 2 min 0 min 292 W/m 29,0 km/h (5 Bft) 100,00 %
16.03.2023 13:42 10,6 C 11,1 C 6,7 C 67 % 1014,7 hPa 0,0 l/m 2 min 0 min 295 W/m 22,5 km/h (4 Bft) 95,74 %
16.03.2023 13:44 10,6 C 11,1 C 6,7 C 67 % 1014,6 hPa 0,0 l/m 2 min 0 min 289 W/m 22,5 km/h (4 Bft) 100,00 %
16.03.2023 13:46 10,6 C 11,1 C 6,7 C 67 % 1014,5 hPa 0,0 l/m 2 min 0 min 303 W/m 22,5 km/h (4 Bft) 100,00 %
16.03.2023 13:48 10,6 C 11,1 C 6,7 C 66 % 1014,6 hPa 0,0 l/m 2 min 0 min 317 W/m 29,0 km/h (5 Bft) 100,00 %
16.03.2023 13:50 10,6 C 11,1 C 6,7 C 66 % 1014,5 hPa 0,0 l/m 2 min 0 min 311 W/m 19,3 km/h (3 Bft) 100,00 %
16.03.2023 13:52 10,6 C 11,1 C 6,7 C 66 % 1014,4 hPa 0,0 l/m 2 min 0 min 307 W/m 32,2 km/h (5 Bft) 100,00 %
16.03.2023 13:54 10,6 C 11,1 C 6,7 C 66 % 1014,5 hPa 0,0 l/m 2 min 0 min 313 W/m 25,7 km/h (4 Bft) 100,00 %
16.03.2023 13:56 10,6 C 11,1 C 6,7 C 66 % 1014,5 hPa 0,0 l/m 2 min 0 min 336 W/m 29,0 km/h (5 Bft) 100,00 %
16.03.2023 13:58 10,7 C 11,7 C 6,7 C 67 % 1014,4 hPa 0,0 l/m 2 min 0 min 365 W/m 25,7 km/h (4 Bft) 100,00 %
16.03.2023 14:00 10,7 C 12,2 C 6,7 C 67 % 1014,5 hPa 0,0 l/m 2 min 0 min 403 W/m 16,1 km/h (3 Bft) 100,00 %
16.03.2023 14:02 10,8 C 12,8 C 7,2 C 67 % 1014,4 hPa 0,0 l/m 2 min 0 min 476 W/m 22,5 km/h (4 Bft) 97,87 %
16.03.2023 14:04 10,9 C 12,8 C 7,2 C 66 % 1014,4 hPa 0,0 l/m 2 min 0 min 470 W/m 25,7 km/h (4 Bft) 100,00 %
16.03.2023 14:06 11,0 C 13,3 C 7,2 C 66 % 1014,5 hPa 0,0 l/m 2 min 0 min 454 W/m 22,5 km/h (4 Bft) 100,00 %
16.03.2023 14:08 11,1 C 13,3 C 7,2 C 66 % 1014,5 hPa 0,0 l/m 2 min 0 min 475 W/m 16,1 km/h (3 Bft) 97,14 %
16.03.2023 14:10 11,2 C 13,3 C 7,2 C 66 % 1014,5 hPa 0,0 l/m 2 min 0 min 462 W/m 25,7 km/h (4 Bft) 97,87 %
16.03.2023 14:12 11,3 C 13,3 C 7,2 C 65 % 1014,5 hPa 0,0 l/m 2 min 0 min 522 W/m 25,7 km/h (4 Bft) 97,87 %
16.03.2023 14:14 11,4 C 13,9 C 7,2 C 64 % 1014,5 hPa 0,0 l/m 2 min 0 min 578 W/m 25,7 km/h (4 Bft) 97,87 %
16.03.2023 14:16 11,5 C 13,9 C 7,2 C 65 % 1014,5 hPa 0,0 l/m 2 min 0 min 618 W/m 16,1 km/h (3 Bft) 95,74 %
16.03.2023 14:18 11,6 C 14,4 C 7,8 C 65 % 1014,4 hPa 0,0 l/m 2 min 0 min 645 W/m 32,2 km/h (5 Bft) 97,87 %
16.03.2023 14:20 11,8 C 13,9 C 7,8 C 64 % 1014,4 hPa 0,0 l/m 2 min 0 min 647 W/m 35,4 km/h (5 Bft) 97,87 %
16.03.2023 14:22 11,9 C 14,4 C 7,2 C 64 % 1014,4 hPa 0,0 l/m 2 min 0 min 639 W/m 35,4 km/h (5 Bft) 95,65 %
16.03.2023 14:24 11,9 C 14,4 C 7,2 C 64 % 1014,3 hPa 0,0 l/m 2 min 0 min 611 W/m 22,5 km/h (4 Bft) 97,87 %
16.03.2023 14:26 12,0 C 14,4 C 7,8 C 63 % 1014,2 hPa 0,0 l/m 2 min 0 min 604 W/m 25,7 km/h (4 Bft) 97,87 %
16.03.2023 14:28 12,1 C 13,9 C 7,8 C 63 % 1014,1 hPa 0,0 l/m 2 min 0 min 592 W/m 22,5 km/h (4 Bft) 97,87 %
16.03.2023 14:30 12,2 C 13,9 C 7,8 C 63 % 1014,1 hPa 0,0 l/m 2 min 0 min 586 W/m 35,4 km/h (5 Bft) 97,87 %
16.03.2023 14:32 12,2 C 13,9 C 7,8 C 63 % 1014,0 hPa 0,0 l/m 2 min 0 min 546 W/m 22,5 km/h (4 Bft) 97,87 %
16.03.2023 14:34 12,3 C 14,4 C 7,8 C 63 % 1014,1 hPa 0,0 l/m 2 min 0 min 521 W/m 22,5 km/h (4 Bft) 93,62 %
16.03.2023 14:36 12,3 C 14,4 C 7,8 C 63 % 1014,0 hPa 0,0 l/m 2 min 0 min 547 W/m 29,0 km/h (5 Bft) 95,65 %
16.03.2023 14:38 12,4 C 15,0 C 7,8 C 63 % 1013,9 hPa 0,0 l/m 2 min 0 min 549 W/m 22,5 km/h (4 Bft) 93,62 %
16.03.2023 14:40 12,4 C 14,4 C 7,8 C 63 % 1013,8 hPa 0,0 l/m 2 min 0 min 525 W/m 22,5 km/h (4 Bft) 95,74 %
16.03.2023 14:42 12,4 C 14,4 C 7,8 C 62 % 1013,7 hPa 0,0 l/m 2 min 0 min 510 W/m 32,2 km/h (5 Bft) 97,87 %
16.03.2023 14:44 12,5 C 14,4 C 7,8 C 62 % 1013,7 hPa 0,0 l/m 2 min 0 min 521 W/m 22,5 km/h (4 Bft) 97,87 %
16.03.2023 14:46 12,5 C 14,4 C 7,8 C 62 % 1013,7 hPa 0,0 l/m 2 min 0 min 527 W/m 22,5 km/h (4 Bft) 97,87 %
16.03.2023 14:48 12,5 C 14,4 C 7,8 C 62 % 1013,7 hPa 0,0 l/m 2 min 0 min 521 W/m 25,7 km/h (4 Bft) 97,83 %
16.03.2023 14:50 12,6 C 15,0 C 7,8 C 62 % 1013,7 hPa 0,0 l/m 2 min 0 min 502 W/m 22,5 km/h (4 Bft) 97,87 %
16.03.2023 14:52 12,6 C 15,0 C 7,8 C 62 % 1013,7 hPa 0,0 l/m 2 min 0 min 557 W/m 22,5 km/h (4 Bft) 100,00 %
16.03.2023 14:54 12,7 C 15,0 C 8,3 C 62 % 1013,6 hPa 0,0 l/m 2 min 0 min 537 W/m 29,0 km/h (5 Bft) 97,87 %
16.03.2023 14:56 12,7 C 15,0 C 8,3 C 62 % 1013,5 hPa 0,0 l/m 2 min 0 min 492 W/m 25,7 km/h (4 Bft) 97,87 %
16.03.2023 14:58 12,8 C 15,0 C 8,3 C 62 % 1013,5 hPa 0,0 l/m 2 min 0 min 487 W/m 22,5 km/h (4 Bft) 97,87 %
16.03.2023 15:00 12,8 C 14,4 C 8,3 C 61 % 1013,5 hPa 0,0 l/m 2 min 0 min 524 W/m 29,0 km/h (5 Bft) 97,87 %
16.03.2023 15:02 12,8 C 13,9 C 7,8 C 61 % 1013,4 hPa 0,0 l/m 2 min 0 min 535 W/m 35,4 km/h (5 Bft) 97,83 %
16.03.2023 15:04 12,8 C 13,9 C 7,8 C 61 % 1013,4 hPa 0,0 l/m 2 min 0 min 515 W/m 35,4 km/h (5 Bft) 97,87 %
16.03.2023 15:06 12,7 C 13,9 C 7,8 C 61 % 1013,4 hPa 0,0 l/m 2 min 0 min 485 W/m 22,5 km/h (4 Bft) 95,74 %
16.03.2023 15:08 12,7 C 13,9 C 7,8 C 61 % 1013,4 hPa 0,0 l/m 2 min 0 min 485 W/m 32,2 km/h (5 Bft) 97,87 %
16.03.2023 15:10 12,7 C 13,9 C 8,3 C 61 % 1013,3 hPa 0,0 l/m 2 min 0 min 455 W/m 25,7 km/h (4 Bft) 97,87 %
16.03.2023 15:12 12,8 C 13,9 C 8,3 C 61 % 1013,3 hPa 0,0 l/m 2 min 0 min 466 W/m 29,0 km/h (5 Bft) 95,74 %
16.03.2023 15:14 12,8 C 13,9 C 8,3 C 61 % 1013,3 hPa 0,0 l/m 2 min 0 min 452 W/m 25,7 km/h (4 Bft) 97,87 %
16.03.2023 15:16 12,8 C 13,9 C 8,3 C 61 % 1013,3 hPa 0,0 l/m 2 min 0 min 463 W/m 29,0 km/h (5 Bft) 93,48 %
16.03.2023 15:18 12,8 C 13,9 C 8,3 C 61 % 1013,2 hPa 0,0 l/m 2 min 0 min 440 W/m 35,4 km/h (5 Bft) 95,74 %
16.03.2023 15:20 12,8 C 13,9 C 8,3 C 61 % 1013,2 hPa 0,0 l/m 2 min 0 min 439 W/m 25,7 km/h (4 Bft) 95,74 %
16.03.2023 15:22 12,8 C 13,9 C 8,3 C 61 % 1013,1 hPa 0,0 l/m 2 min 0 min 471 W/m 22,5 km/h (4 Bft) 97,87 %
16.03.2023 15:24 12,8 C 13,9 C 8,3 C 62 % 1013,1 hPa 0,0 l/m 2 min 0 min 470 W/m 35,4 km/h (5 Bft) 97,87 %
16.03.2023 15:26 12,8 C 13,9 C 8,3 C 62 % 1013,1 hPa 0,0 l/m 2 min 0 min 484 W/m 19,3 km/h (3 Bft) 97,87 %
16.03.2023 15:28 12,9 C 13,9 C 8,3 C 61 % 1012,9 hPa 0,0 l/m 2 min 0 min 464 W/m 22,5 km/h (4 Bft) 97,87 %
16.03.2023 15:30 12,9 C 13,9 C 8,3 C 61 % 1013,0 hPa 0,0 l/m 2 min 0 min 415 W/m 29,0 km/h (5 Bft) 97,83 %
16.03.2023 15:32 12,9 C 13,9 C 8,3 C 62 % 1013,0 hPa 0,0 l/m 2 min 0 min 412 W/m 16,1 km/h (3 Bft) 95,74 %
16.03.2023 15:34 12,9 C 13,9 C 8,3 C 61 % 1013,0 hPa 0,0 l/m 2 min 0 min 437 W/m 29,0 km/h (5 Bft) 97,87 %
16.03.2023 15:36 12,9 C 14,4 C 8,3 C 61 % 1013,0 hPa 0,0 l/m 2 min 0 min 440 W/m 38,6 km/h (5 Bft) 97,87 %
16.03.2023 15:38 12,9 C 14,4 C 8,3 C 61 % 1012,9 hPa 0,0 l/m 2 min 0 min 443 W/m 45,1 km/h (6 Bft) 97,87 %
16.03.2023 15:40 12,9 C 14,4 C 8,3 C 61 % 1012,9 hPa 0,0 l/m 2 min 0 min 432 W/m 22,5 km/h (4 Bft) 97,87 %
16.03.2023 15:42 13,0 C 15,0 C 8,3 C 61 % 1012,9 hPa 0,0 l/m 2 min 0 min 467 W/m 16,1 km/h (3 Bft) 95,65 %
16.03.2023 15:44 13,0 C 15,6 C 8,3 C 61 % 1012,9 hPa 0,0 l/m 2 min 0 min 462 W/m 25,7 km/h (4 Bft) 95,74 %
16.03.2023 15:46 13,1 C 15,0 C 8,3 C 61 % 1012,8 hPa 0,0 l/m 2 min 0 min 451 W/m 22,5 km/h (4 Bft) 100,00 %
16.03.2023 15:48 13,1 C 15,0 C 8,3 C 61 % 1012,8 hPa 0,0 l/m 2 min 0 min 443 W/m 38,6 km/h (5 Bft) 97,87 %
16.03.2023 15:50 13,1 C 15,0 C 8,3 C 60 % 1012,7 hPa 0,0 l/m 2 min 0 min 441 W/m 38,6 km/h (5 Bft) 95,74 %
16.03.2023 15:52 13,1 C 15,0 C 8,3 C 60 % 1012,7 hPa 0,0 l/m 2 min 0 min 475 W/m 29,0 km/h (5 Bft) 97,87 %
16.03.2023 15:54 13,2 C 15,0 C 8,3 C 60 % 1012,7 hPa 0,0 l/m 2 min 0 min 458 W/m 35,4 km/h (5 Bft) 97,87 %
16.03.2023 15:56 13,2 C 15,0 C 8,3 C 59 % 1012,7 hPa 0,0 l/m 2 min 0 min 427 W/m 25,7 km/h (4 Bft) 95,65 %
16.03.2023 15:58 13,2 C 15,0 C 8,3 C 60 % 1012,7 hPa 0,0 l/m 2 min 0 min 402 W/m 22,5 km/h (4 Bft) 93,62 %
16.03.2023 16:00 13,2 C 15,0 C 8,3 C 59 % 1012,7 hPa 0,0 l/m 2 min 0 min 384 W/m 29,0 km/h (5 Bft) 97,87 %
16.03.2023 16:02 13,2 C 14,4 C 8,3 C 59 % 1012,7 hPa 0,0 l/m 2 min 0 min 363 W/m 29,0 km/h (5 Bft) 95,74 %
16.03.2023 16:04 13,2 C 14,4 C 7,8 C 60 % 1012,7 hPa 0,0 l/m 2 min 0 min 313 W/m 22,5 km/h (4 Bft) 97,87 %
16.03.2023 16:06 13,2 C 14,4 C 7,8 C 60 % 1012,6 hPa 0,0 l/m 2 min 0 min 323 W/m 19,3 km/h (3 Bft) 95,74 %
16.03.2023 16:08 13,1 C 13,9 C 7,8 C 60 % 1012,6 hPa 0,0 l/m 2 min 0 min 307 W/m 25,7 km/h (4 Bft) 97,87 %
16.03.2023 16:10 13,1 C 13,9 C 7,8 C 59 % 1012,5 hPa 0,0 l/m 2 min 0 min 318 W/m 25,7 km/h (4 Bft) 97,83 %
16.03.2023 16:12 13,0 C 13,9 C 7,8 C 59 % 1012,5 hPa 0,0 l/m 2 min 0 min 318 W/m 29,0 km/h (5 Bft) 95,74 %
16.03.2023 16:14 12,9 C 13,9 C 7,8 C 59 % 1012,5 hPa 0,0 l/m 2 min 0 min 314 W/m 25,7 km/h (4 Bft) 97,87 %
16.03.2023 16:16 12,9 C 13,9 C 7,8 C 60 % 1012,4 hPa 0,0 l/m 2 min 0 min 290 W/m 25,7 km/h (4 Bft) 97,87 %
16.03.2023 16:18 12,9 C 13,9 C 7,8 C 60 % 1012,5 hPa 0,0 l/m 2 min 0 min 318 W/m 22,5 km/h (4 Bft) 97,87 %
16.03.2023 16:20 12,9 C 13,9 C 7,8 C 59 % 1012,5 hPa 0,0 l/m 2 min 0 min 326 W/m 25,7 km/h (4 Bft) 97,87 %
16.03.2023 16:22 12,9 C 13,9 C 7,8 C 59 % 1012,5 hPa 0,0 l/m 2 min 0 min 316 W/m 35,4 km/h (5 Bft) 97,83 %
16.03.2023 16:24 12,8 C 13,9 C 7,8 C 60 % 1012,4 hPa 0,0 l/m 2 min 0 min 296 W/m 29,0 km/h (5 Bft) 97,87 %
16.03.2023 16:26 12,9 C 14,4 C 7,8 C 60 % 1012,5 hPa 0,0 l/m 2 min 0 min 290 W/m 16,1 km/h (3 Bft) 97,87 %
16.03.2023 16:28 12,9 C 13,9 C 7,8 C 60 % 1012,3 hPa 0,0 l/m 2 min 0 min 264 W/m 29,0 km/h (5 Bft) 91,49 %
16.03.2023 16:30 12,8 C 13,3 C 7,8 C 59 % 1012,3 hPa 0,0 l/m 2 min 0 min 253 W/m 29,0 km/h (5 Bft) 95,74 %
16.03.2023 16:32 12,8 C 13,3 C 7,8 C 59 % 1012,4 hPa 0,0 l/m 2 min 0 min 211 W/m 25,7 km/h (4 Bft) 95,74 %
16.03.2023 16:34 12,8 C 12,8 C 7,8 C 59 % 1012,3 hPa 0,0 l/m 2 min 0 min 206 W/m 35,4 km/h (5 Bft) 95,35 %
16.03.2023 16:36 12,7 C 12,8 C 7,8 C 60 % 1012,3 hPa 0,0 l/m 2 min 0 min 185 W/m 25,7 km/h (4 Bft) 95,74 %
16.03.2023 16:38 12,7 C 12,2 C 7,8 C 60 % 1012,2 hPa 0,0 l/m 2 min 0 min 194 W/m 29,0 km/h (5 Bft) 97,87 %
16.03.2023 16:40 12,6 C 12,2 C 7,8 C 60 % 1012,2 hPa 0,0 l/m 2 min 0 min 165 W/m 25,7 km/h (4 Bft) 97,87 %
16.03.2023 16:42 12,6 C 12,2 C 7,8 C 60 % 1012,1 hPa 0,0 l/m 2 min 0 min 178 W/m 25,7 km/h (4 Bft) 100,00 %
16.03.2023 16:44 12,5 C 12,2 C 7,8 C 61 % 1012,1 hPa 0,0 l/m 2 min 0 min 186 W/m 22,5 km/h (4 Bft) 97,87 %
16.03.2023 16:46 12,5 C 12,2 C 7,2 C 61 % 1012,1 hPa 0,0 l/m 2 min 0 min 189 W/m 16,1 km/h (3 Bft) 97,87 %
16.03.2023 16:48 12,4 C 12,2 C 7,2 C 61 % 1012,1 hPa 0,0 l/m 2 min 0 min 178 W/m 32,2 km/h (5 Bft) 97,87 %
16.03.2023 16:50 12,4 C 12,2 C 7,8 C 60 % 1012,1 hPa 0,0 l/m 2 min 0 min 167 W/m 25,7 km/h (4 Bft) 97,87 %
16.03.2023 16:52 12,4 C 12,2 C 7,8 C 61 % 1012,0 hPa 0,0 l/m 2 min 0 min 143 W/m 29,0 km/h (5 Bft) 95,74 %
16.03.2023 16:54 12,4 C 12,2 C 7,2 C 61 % 1012,0 hPa 0,0 l/m 0 min 0 min 117 W/m 22,5 km/h (4 Bft) 97,87 %
16.03.2023 16:56 12,3 C 12,2 C 7,2 C 61 % 1012,0 hPa 0,0 l/m 0 min 0 min 113 W/m 19,3 km/h (3 Bft) 97,87 %
16.03.2023 16:58 12,3 C 12,2 C 7,2 C 61 % 1012,0 hPa 0,0 l/m 0 min 0 min 117 W/m 32,2 km/h (5 Bft) 95,65 %
16.03.2023 17:00 12,3 C 11,7 C 7,2 C 61 % 1012,0 hPa 0,0 l/m 0 min 0 min 120 W/m 29,0 km/h (5 Bft) 97,87 %
16.03.2023 17:02 12,2 C 11,7 C 7,2 C 61 % 1011,9 hPa 0,0 l/m 0 min 0 min 113 W/m 22,5 km/h (4 Bft) 95,74 %
16.03.2023 17:04 12,2 C 11,7 C 7,2 C 62 % 1011,9 hPa 0,0 l/m 0 min 0 min 105 W/m 22,5 km/h (4 Bft) 97,87 %
16.03.2023 17:06 12,1 C 11,7 C 7,2 C 62 % 1011,9 hPa 0,0 l/m 0 min 0 min 101 W/m 25,7 km/h (4 Bft) 94,92 %
16.03.2023 17:08 12,1 C 11,7 C 7,2 C 62 % 1011,9 hPa 0,0 l/m 0 min 0 min 99 W/m 19,3 km/h (3 Bft) 100,00 %
16.03.2023 17:10 12,1 C 11,7 C 7,2 C 62 % 1011,9 hPa 0,0 l/m 0 min 0 min 104 W/m 22,5 km/h (4 Bft) 95,74 %
16.03.2023 17:12 12,0 C 11,7 C 7,2 C 62 % 1011,9 hPa 0,0 l/m 0 min 0 min 105 W/m 22,5 km/h (4 Bft) 100,00 %
16.03.2023 17:14 12,0 C 11,7 C 7,2 C 62 % 1011,9 hPa 0,0 l/m 0 min 0 min 103 W/m 22,5 km/h (4 Bft) 100,00 %
16.03.2023 17:16 11,9 C 11,7 C 7,2 C 62 % 1011,9 hPa 0,0 l/m 0 min 0 min 100 W/m 22,5 km/h (4 Bft) 100,00 %
16.03.2023 17:18 11,9 C 11,1 C 7,2 C 62 % 1011,8 hPa 0,0 l/m 0 min 0 min 98 W/m 35,4 km/h (5 Bft) 100,00 %
16.03.2023 17:20 11,9 C 11,1 C 7,2 C 62 % 1011,8 hPa 0,0 l/m 0 min 0 min 98 W/m 12,9 km/h (3 Bft) 100,00 %
16.03.2023 17:22 11,8 C 11,1 C 7,2 C 63 % 1011,7 hPa 0,0 l/m 2 min 0 min 98 W/m 16,1 km/h (3 Bft) 100,00 %
16.03.2023 17:24 11,8 C 11,1 C 7,2 C 63 % 1011,8 hPa 0,0 l/m 2 min 0 min 97 W/m 19,3 km/h (3 Bft) 100,00 %
16.03.2023 17:26 11,8 C 11,1 C 7,2 C 63 % 1011,8 hPa 0,0 l/m 2 min 0 min 97 W/m 19,3 km/h (3 Bft) 100,00 %
16.03.2023 17:28 11,8 C 11,1 C 7,2 C 63 % 1011,7 hPa 0,0 l/m 2 min 0 min 105 W/m 19,3 km/h (3 Bft) 97,87 %
16.03.2023 17:30 11,7 C 11,1 C 7,2 C 63 % 1011,6 hPa 0,0 l/m 2 min 0 min 119 W/m 25,7 km/h (4 Bft) 97,87 %
16.03.2023 17:32 11,7 C 11,1 C 7,2 C 63 % 1011,7 hPa 0,0 l/m 2 min 0 min 114 W/m 16,1 km/h (3 Bft) 100,00 %
16.03.2023 17:34 11,7 C 11,1 C 7,2 C 63 % 1011,6 hPa 0,0 l/m 2 min 0 min 102 W/m 22,5 km/h (4 Bft) 97,87 %
16.03.2023 17:36 11,7 C 11,1 C 7,2 C 63 % 1011,7 hPa 0,0 l/m 2 min 0 min 99 W/m 19,3 km/h (3 Bft) 97,87 %
16.03.2023 17:38 11,7 C 11,1 C 6,7 C 63 % 1011,6 hPa 0,0 l/m 2 min 0 min 86 W/m 16,1 km/h (3 Bft) 95,74 %
16.03.2023 17:40 11,6 C 11,1 C 6,7 C 64 % 1011,6 hPa 0,0 l/m 2 min 0 min 79 W/m 22,5 km/h (4 Bft) 95,74 %
16.03.2023 17:42 11,6 C 11,1 C 6,7 C 64 % 1011,7 hPa 0,0 l/m 2 min 0 min 74 W/m 25,7 km/h (4 Bft) 95,74 %
16.03.2023 17:44 11,6 C 11,1 C 6,7 C 64 % 1011,7 hPa 0,0 l/m 2 min 0 min 70 W/m 19,3 km/h (3 Bft) 97,87 %
16.03.2023 17:46 11,6 C 11,1 C 6,7 C 64 % 1011,6 hPa 0,0 l/m 2 min 0 min 68 W/m 16,1 km/h (3 Bft) 97,83 %
16.03.2023 17:48 11,5 C 10,6 C 6,7 C 64 % 1011,6 hPa 0,0 l/m 2 min 0 min 63 W/m 22,5 km/h (4 Bft) 93,62 %
16.03.2023 17:50 11,5 C 10,6 C 6,7 C 64 % 1011,7 hPa 0,0 l/m 0 min 0 min 56 W/m 22,5 km/h (4 Bft) 97,87 %
16.03.2023 17:52 11,4 C 10,6 C 6,7 C 65 % 1011,6 hPa 0,0 l/m 0 min 0 min 50 W/m 19,3 km/h (3 Bft) 97,87 %
16.03.2023 17:54 11,4 C 10,6 C 6,7 C 65 % 1011,6 hPa 0,0 l/m 0 min 0 min 45 W/m 19,3 km/h (3 Bft) 97,87 %
16.03.2023 17:56 11,4 C 10,6 C 6,7 C 65 % 1011,7 hPa 0,0 l/m 0 min 0 min 42 W/m 22,5 km/h (4 Bft) 97,87 %
16.03.2023 17:58 11,3 C 10,6 C 6,7 C 65 % 1011,7 hPa 0,0 l/m 0 min 0 min 40 W/m 19,3 km/h (3 Bft) 59,57 %
16.03.2023 18:00 11,3 C 10,6 C 6,7 C 65 % 1011,7 hPa 0,0 l/m 0 min 0 min 40 W/m 19,3 km/h (3 Bft) 92,11 %
16.03.2023 18:02 11,3 C 10,6 C 6,7 C 65 % 1011,8 hPa 0,0 l/m 0 min 0 min 41 W/m 19,3 km/h (3 Bft) 95,74 %
16.03.2023 18:04 11,2 C 10,6 C 6,1 C 66 % 1011,7 hPa 0,0 l/m 0 min 0 min 38 W/m 25,7 km/h (4 Bft) 97,87 %
16.03.2023 18:07 11,2 C 10,6 C 6,1 C 66 % 1011,7 hPa 0,0 l/m 0 min 0 min 35 W/m 22,5 km/h (4 Bft) 97,14 %
16.03.2023 18:08 11,1 C 10,6 C 6,1 C 66 % 1011,7 hPa 0,0 l/m 0 min 0 min 32 W/m 19,3 km/h (3 Bft) 100,00 %
16.03.2023 18:12 11,1 C 10,0 C 6,1 C 66 % 1011,7 hPa 0,0 l/m 0 min 0 min 29 W/m 22,5 km/h (4 Bft) 98,18 %
16.03.2023 18:14 11,1 C 10,0 C 6,1 C 66 % 1011,7 hPa 0,0 l/m 0 min 0 min 25 W/m 22,5 km/h (4 Bft) 100,00 %
16.03.2023 18:16 11,0 C 10,0 C 6,1 C 67 % 1011,7 hPa 0,0 l/m 0 min 0 min 23 W/m 16,1 km/h (3 Bft) 100,00 %
16.03.2023 18:18 10,9 C 10,0 C 6,1 C 67 % 1011,7 hPa 0,0 l/m 0 min 0 min 21 W/m 19,3 km/h (3 Bft) 97,87 %
16.03.2023 18:20 10,9 C 10,0 C 6,1 C 67 % 1011,8 hPa 0,0 l/m 0 min 0 min 18 W/m 19,3 km/h (3 Bft) 97,87 %
16.03.2023 18:22 10,9 C 10,0 C 6,1 C 67 % 1011,8 hPa 0,0 l/m 0 min 0 min 15 W/m 19,3 km/h (3 Bft) 97,87 %
16.03.2023 18:24 10,8 C 10,0 C 6,1 C 67 % 1011,8 hPa 0,0 l/m 0 min 0 min 13 W/m 19,3 km/h (3 Bft) 97,87 %
16.03.2023 18:26 10,8 C 10,0 C 6,1 C 67 % 1011,8 hPa 0,0 l/m 0 min 0 min 11 W/m 22,5 km/h (4 Bft) 97,87 %
16.03.2023 18:28 10,8 C 10,0 C 6,1 C 68 % 1011,8 hPa 0,0 l/m 0 min 0 min 10 W/m 22,5 km/h (4 Bft) 97,87 %
16.03.2023 18:30 10,7 C 10,0 C 6,1 C 68 % 1011,8 hPa 0,0 l/m 0 min 0 min 8 W/m 19,3 km/h (3 Bft) 95,74 %
16.03.2023 18:32 10,7 C 9,4 C 6,1 C 68 % 1011,9 hPa 0,0 l/m 0 min 0 min 7 W/m 19,3 km/h (3 Bft) 95,65 %
16.03.2023 18:34 10,7 C 9,4 C 5,6 C 68 % 1011,8 hPa 0,0 l/m 0 min 0 min 5 W/m 19,3 km/h (3 Bft) 95,74 %
16.03.2023 18:36 10,6 C 9,4 C 5,6 C 68 % 1011,8 hPa 0,0 l/m 0 min 0 min 2 W/m 29,0 km/h (5 Bft) 97,87 %
16.03.2023 18:38 10,6 C 9,4 C 5,6 C 68 % 1011,8 hPa 0,0 l/m 0 min 0 min 0 W/m 16,1 km/h (3 Bft) 95,74 %
16.03.2023 18:40 10,6 C 9,4 C 5,6 C 69 % 1011,8 hPa 0,0 l/m 0 min 0 min 0 W/m 16,1 km/h (3 Bft) 97,87 %
16.03.2023 18:42 10,6 C 9,4 C 5,6 C 69 % 1011,8 hPa 0,0 l/m 0 min 0 min 0 W/m 29,0 km/h (5 Bft) 95,74 %
16.03.2023 18:44 10,5 C 9,4 C 5,6 C 69 % 1011,8 hPa 0,0 l/m 0 min 0 min 0 W/m 19,3 km/h (3 Bft) 97,83 %
16.03.2023 18:46 10,4 C 9,4 C 5,6 C 69 % 1011,8 hPa 0,0 l/m 0 min 0 min 0 W/m 25,7 km/h (4 Bft) 95,74 %
16.03.2023 18:48 10,4 C 9,4 C 5,6 C 69 % 1011,9 hPa 0,0 l/m 0 min 0 min 0 W/m 22,5 km/h (4 Bft) 97,87 %
16.03.2023 18:50 10,4 C 9,4 C 5,6 C 69 % 1011,8 hPa 0,0 l/m 0 min 0 min 0 W/m 19,3 km/h (3 Bft) 97,87 %
16.03.2023 18:52 10,3 C 9,4 C 5,6 C 70 % 1011,8 hPa 0,0 l/m 0 min 0 min 0 W/m 19,3 km/h (3 Bft) 97,87 %
16.03.2023 18:54 10,3 C 9,4 C 5,6 C 70 % 1011,8 hPa 0,0 l/m 0 min 0 min 0 W/m 25,7 km/h (4 Bft) 95,74 %
16.03.2023 18:56 10,3 C 9,4 C 5,6 C 70 % 1011,7 hPa 0,0 l/m 0 min 0 min 0 W/m 25,7 km/h (4 Bft) 95,74 %
16.03.2023 18:58 10,3 C 9,4 C 5,6 C 70 % 1011,8 hPa 0,0 l/m 0 min 0 min 0 W/m 22,5 km/h (4 Bft) 100,00 %
16.03.2023 19:00 10,2 C 9,4 C 5,6 C 70 % 1011,8 hPa 0,0 l/m 0 min 0 min 0 W/m 16,1 km/h (3 Bft) 100,00 %
16.03.2023 19:02 10,2 C 9,4 C 5,6 C 70 % 1011,8 hPa 0,0 l/m 0 min 0 min 0 W/m 19,3 km/h (3 Bft) 97,87 %
16.03.2023 19:04 10,2 C 9,4 C 5,6 C 70 % 1011,8 hPa 0,0 l/m 0 min 0 min 0 W/m 19,3 km/h (3 Bft) 100,00 %
16.03.2023 19:06 10,2 C 9,4 C 5,6 C 70 % 1011,8 hPa 0,0 l/m 0 min 0 min 0 W/m 29,0 km/h (5 Bft) 100,00 %
16.03.2023 19:08 10,1 C 9,4 C 5,6 C 70 % 1011,8 hPa 0,0 l/m 0 min 0 min 0 W/m 22,5 km/h (4 Bft) 100,00 %
16.03.2023 19:10 10,1 C 9,4 C 5,6 C 70 % 1011,8 hPa 0,0 l/m 0 min 0 min 0 W/m 22,5 km/h (4 Bft) 97,87 %
16.03.2023 19:12 10,1 C 8,9 C 5,6 C 70 % 1011,9 hPa 0,0 l/m 0 min 0 min 0 W/m 25,7 km/h (4 Bft) 100,00 %
16.03.2023 19:14 10,1 C 8,9 C 5,6 C 71 % 1011,9 hPa 0,0 l/m 0 min 0 min 0 W/m 22,5 km/h (4 Bft) 100,00 %
16.03.2023 19:16 10,1 C 8,9 C 5,6 C 71 % 1011,9 hPa 0,0 l/m 0 min 0 min 0 W/m 22,5 km/h (4 Bft) 97,87 %
16.03.2023 19:18 10,0 C 8,9 C 5,0 C 71 % 1011,8 hPa 0,0 l/m 0 min 0 min 0 W/m 25,7 km/h (4 Bft) 97,87 %
16.03.2023 19:20 10,0 C 8,9 C 5,0 C 71 % 1011,9 hPa 0,0 l/m 0 min 0 min 0 W/m 22,5 km/h (4 Bft) 95,74 %
16.03.2023 19:22 9,9 C 8,9 C 5,0 C 71 % 1011,9 hPa 0,0 l/m 0 min 0 min 0 W/m 16,1 km/h (3 Bft) 97,87 %
16.03.2023 19:24 9,9 C 8,9 C 5,0 C 71 % 1011,9 hPa 0,0 l/m 0 min 0 min 0 W/m 19,3 km/h (3 Bft) 97,87 %
16.03.2023 19:26 9,9 C 8,9 C 5,0 C 71 % 1011,8 hPa 0,0 l/m 0 min 0 min 0 W/m 22,5 km/h (4 Bft) 95,74 %
16.03.2023 19:28 9,9 C 8,9 C 5,0 C 71 % 1011,8 hPa 0,0 l/m 0 min 0 min 0 W/m 22,5 km/h (4 Bft) 95,74 %
16.03.2023 19:30 9,8 C 8,9 C 5,0 C 71 % 1011,8 hPa 0,0 l/m 0 min 0 min 0 W/m 22,5 km/h (4 Bft) 97,87 %
16.03.2023 19:32 9,8 C 8,9 C 5,0 C 71 % 1011,8 hPa 0,0 l/m 0 min 0 min 0 W/m 32,2 km/h (5 Bft) 95,74 %
16.03.2023 19:34 9,8 C 8,9 C 5,0 C 71 % 1011,8 hPa 0,0 l/m 0 min 0 min 0 W/m 22,5 km/h (4 Bft) 91,49 %
16.03.2023 19:36 9,8 C 8,9 C 5,0 C 71 % 1011,8 hPa 0,0 l/m 0 min 0 min 0 W/m 19,3 km/h (3 Bft) 93,48 %
16.03.2023 19:38 9,7 C 8,9 C 5,0 C 71 % 1011,8 hPa 0,0 l/m 0 min 0 min 0 W/m 22,5 km/h (4 Bft) 93,62 %
16.03.2023 19:40 9,7 C 8,9 C 5,0 C 71 % 1011,8 hPa 0,0 l/m 0 min 0 min 0 W/m 22,5 km/h (4 Bft) 95,74 %
16.03.2023 19:42 9,7 C 8,9 C 5,0 C 71 % 1011,8 hPa 0,0 l/m 0 min 0 min 0 W/m 19,3 km/h (3 Bft) 95,74 %
16.03.2023 19:44 9,7 C 8,9 C 5,0 C 71 % 1011,8 hPa 0,0 l/m 0 min 0 min 0 W/m 25,7 km/h (4 Bft) 95,74 %
16.03.2023 19:46 9,7 C 8,9 C 5,0 C 71 % 1011,8 hPa 0,0 l/m 0 min 0 min 0 W/m 29,0 km/h (5 Bft) 93,62 %
16.03.2023 19:48 9,7 C 8,9 C 5,0 C 71 % 1011,9 hPa 0,0 l/m 0 min 0 min 0 W/m 22,5 km/h (4 Bft) 95,74 %
16.03.2023 19:50 9,7 C 8,9 C 5,0 C 71 % 1011,9 hPa 0,0 l/m 0 min 0 min 0 W/m 32,2 km/h (5 Bft) 95,65 %
16.03.2023 19:52 9,7 C 8,9 C 5,0 C 71 % 1011,9 hPa 0,0 l/m 0 min 0 min 0 W/m 19,3 km/h (3 Bft) 94,00 %
16.03.2023 19:54 9,6 C 8,9 C 5,0 C 71 % 1011,9 hPa 0,0 l/m 0 min 0 min 0 W/m 19,3 km/h (3 Bft) 95,74 %
16.03.2023 19:56 9,6 C 8,9 C 5,0 C 71 % 1011,9 hPa 0,0 l/m 0 min 0 min 0 W/m 19,3 km/h (3 Bft) 95,74 %
16.03.2023 19:58 9,6 C 8,9 C 5,0 C 71 % 1011,8 hPa 0,0 l/m 0 min 0 min 0 W/m 25,7 km/h (4 Bft) 95,74 %
16.03.2023 20:00 9,6 C 8,9 C 5,0 C 71 % 1011,8 hPa 0,0 l/m 0 min 0 min 0 W/m 22,5 km/h (4 Bft) 97,06 %
16.03.2023 20:02 9,6 C 8,9 C 5,0 C 71 % 1011,8 hPa 0,0 l/m 0 min 0 min 0 W/m 22,5 km/h (4 Bft) 96,23 %
16.03.2023 20:04 9,6 C 8,9 C 5,0 C 71 % 1011,8 hPa 0,0 l/m 0 min 0 min 0 W/m 19,3 km/h (3 Bft) 89,36 %
16.03.2023 20:06 9,6 C 8,9 C 5,0 C 71 % 1011,8 hPa 0,0 l/m 0 min 0 min 0 W/m 25,7 km/h (4 Bft) 98,28 %
16.03.2023 20:08 9,6 C 8,9 C 5,0 C 71 % 1011,8 hPa 0,0 l/m 0 min 0 min 0 W/m 25,7 km/h (4 Bft) 100,00 %
16.03.2023 20:10 9,6 C 8,9 C 5,0 C 71 % 1011,8 hPa 0,0 l/m 0 min 0 min 0 W/m 25,7 km/h (4 Bft) 100,00 %
16.03.2023 20:12 9,5 C 8,9 C 5,0 C 71 % 1011,8 hPa 0,0 l/m 0 min 0 min 0 W/m 22,5 km/h (4 Bft) 100,00 %
16.03.2023 20:14 9,5 C 8,3 C 5,0 C 71 % 1011,8 hPa 0,0 l/m 0 min 0 min 0 W/m 29,0 km/h (5 Bft) 100,00 %
16.03.2023 20:16 9,5 C 8,3 C 5,0 C 71 % 1011,8 hPa 0,0 l/m 0 min 0 min 0 W/m 25,7 km/h (4 Bft) 97,14 %
16.03.2023 20:18 9,5 C 8,3 C 5,0 C 71 % 1011,9 hPa 0,0 l/m 0 min 0 min 0 W/m 25,7 km/h (4 Bft) 100,00 %
16.03.2023 20:20 9,5 C 8,9 C 5,0 C 70 % 1011,9 hPa 0,0 l/m 0 min 0 min 0 W/m 32,2 km/h (5 Bft) 100,00 %
16.03.2023 20:22 9,5 C 8,3 C 5,0 C 70 % 1011,9 hPa 0,0 l/m 0 min 0 min 0 W/m 22,5 km/h (4 Bft) 100,00 %
16.03.2023 20:24 9,4 C 8,3 C 5,0 C 70 % 1011,9 hPa 0,0 l/m 0 min 0 min 0 W/m 22,5 km/h (4 Bft) 98,00 %
16.03.2023 20:26 9,4 C 8,3 C 5,0 C 70 % 1011,7 hPa 0,0 l/m 0 min 0 min 0 W/m 22,5 km/h (4 Bft) 97,87 %
16.03.2023 20:28 9,4 C 8,3 C 5,0 C 70 % 1011,8 hPa 0,0 l/m 0 min 0 min 0 W/m 19,3 km/h (3 Bft) 97,87 %
16.03.2023 20:30 9,4 C 8,3 C 4,4 C 71 % 1011,9 hPa 0,0 l/m 0 min 0 min 0 W/m 19,3 km/h (3 Bft) 100,00 %
16.03.2023 20:32 9,4 C 8,3 C 4,4 C 71 % 1011,9 hPa 0,0 l/m 0 min 0 min 0 W/m 22,5 km/h (4 Bft) 100,00 %
16.03.2023 20:34 9,4 C 8,3 C 5,0 C 71 % 1011,9 hPa 0,0 l/m 0 min 0 min 0 W/m 29,0 km/h (5 Bft) 100,00 %
16.03.2023 20:36 9,3 C 8,3 C 5,0 C 71 % 1011,9 hPa 0,0 l/m 0 min 0 min 0 W/m 25,7 km/h (4 Bft) 97,22 %
16.03.2023 20:38 9,3 C 8,3 C 5,0 C 71 % 1011,9 hPa 0,0 l/m 0 min 0 min 0 W/m 22,5 km/h (4 Bft) 100,00 %
16.03.2023 20:40 9,3 C 8,3 C 4,4 C 71 % 1011,9 hPa 0,0 l/m 0 min 0 min 0 W/m 19,3 km/h (3 Bft) 100,00 %
16.03.2023 20:42 9,3 C 8,3 C 4,4 C 71 % 1011,8 hPa 0,0 l/m 0 min 0 min 0 W/m 25,7 km/h (4 Bft) 97,83 %
16.03.2023 20:44 9,3 C 8,3 C 4,4 C 71 % 1011,9 hPa 0,0 l/m 0 min 0 min 0 W/m 22,5 km/h (4 Bft) 97,87 %
16.03.2023 20:46 9,3 C 8,3 C 4,4 C 71 % 1011,9 hPa 0,0 l/m 0 min 0 min 0 W/m 22,5 km/h (4 Bft) 97,87 %
16.03.2023 20:48 9,3 C 8,3 C 4,4 C 71 % 1011,8 hPa 0,0 l/m 0 min 0 min 0 W/m 22,5 km/h (4 Bft) 97,87 %
16.03.2023 20:50 9,3 C 8,3 C 4,4 C 71 % 1011,8 hPa 0,0 l/m 0 min 0 min 0 W/m 16,1 km/h (3 Bft) 97,87 %
16.03.2023 20:52 9,2 C 8,3 C 4,4 C 71 % 1011,7 hPa 0,0 l/m 0 min 0 min 0 W/m 19,3 km/h (3 Bft) 97,87 %
16.03.2023 20:54 9,2 C 8,3 C 4,4 C 71 % 1011,6 hPa 0,0 l/m 0 min 0 min 0 W/m 29,0 km/h (5 Bft) 97,87 %
16.03.2023 20:56 9,2 C 8,3 C 4,4 C 71 % 1011,6 hPa 0,0 l/m 0 min 0 min 0 W/m 19,3 km/h (3 Bft) 97,83 %
16.03.2023 20:58 9,2 C 8,3 C 4,4 C 71 % 1011,5 hPa 0,0 l/m 0 min 0 min 0 W/m 19,3 km/h (3 Bft) 97,87 %
16.03.2023 21:00 9,2 C 8,3 C 4,4 C 71 % 1011,5 hPa 0,0 l/m 0 min 0 min 0 W/m 19,3 km/h (3 Bft) 97,87 %
16.03.2023 21:02 9,1 C 8,3 C 4,4 C 71 % 1011,4 hPa 0,0 l/m 0 min 0 min 0 W/m 22,5 km/h (4 Bft) 93,62 %
16.03.2023 21:04 9,1 C 8,3 C 4,4 C 71 % 1011,4 hPa 0,0 l/m 0 min 0 min 0 W/m 19,3 km/h (3 Bft) 95,74 %
16.03.2023 21:06 9,1 C 8,3 C 4,4 C 71 % 1011,3 hPa 0,0 l/m 0 min 0 min 0 W/m 25,7 km/h (4 Bft) 96,97 %
16.03.2023 21:08 9,1 C 8,3 C 4,4 C 71 % 1011,3 hPa 0,0 l/m 0 min 0 min 0 W/m 25,7 km/h (4 Bft) 97,14 %
16.03.2023 21:10 9,1 C 8,3 C 4,4 C 71 % 1011,3 hPa 0,0 l/m 0 min 0 min 0 W/m 19,3 km/h (3 Bft) 97,87 %
16.03.2023 21:12 9,1 C 8,3 C 4,4 C 71 % 1011,3 hPa 0,0 l/m 0 min 0 min 0 W/m 19,3 km/h (3 Bft) 97,83 %
16.03.2023 21:14 9,1 C 8,3 C 4,4 C 71 % 1011,3 hPa 0,0 l/m 0 min 0 min 0 W/m 12,9 km/h (3 Bft) 97,87 %
16.03.2023 21:16 9,1 C 8,3 C 4,4 C 71 % 1011,3 hPa 0,0 l/m 0 min 0 min 0 W/m 29,0 km/h (5 Bft) 97,87 %
16.03.2023 21:18 9,1 C 8,3 C 4,4 C 71 % 1011,2 hPa 0,0 l/m 0 min 0 min 0 W/m 19,3 km/h (3 Bft) 95,74 %
16.03.2023 21:20 9,1 C 8,3 C 4,4 C 71 % 1011,2 hPa 0,0 l/m 0 min 0 min 0 W/m 19,3 km/h (3 Bft) 95,74 %
16.03.2023 21:22 9,1 C 8,3 C 4,4 C 71 % 1011,2 hPa 0,0 l/m 0 min 0 min 0 W/m 22,5 km/h (4 Bft) 96,08 %
16.03.2023 21:24 9,1 C 8,3 C 4,4 C 71 % 1011,2 hPa 0,0 l/m 0 min 0 min 0 W/m 35,4 km/h (5 Bft) 63,83 %
16.03.2023 21:26 9,1 C 8,3 C 4,4 C 71 % 1011,3 hPa 0,0 l/m 0 min 0 min 0 W/m 29,0 km/h (5 Bft) 82,93 %
16.03.2023 21:28 9,1 C 8,3 C 4,4 C 71 % 1011,2 hPa 0,0 l/m 0 min 0 min 0 W/m 22,5 km/h (4 Bft) 97,87 %
16.03.2023 21:30 9,1 C 8,3 C 4,4 C 71 % 1011,1 hPa 0,0 l/m 0 min 0 min 0 W/m 22,5 km/h (4 Bft) 97,14 %
16.03.2023 21:32 9,0 C 8,3 C 4,4 C 71 % 1011,1 hPa 0,0 l/m 0 min 0 min 0 W/m 35,4 km/h (5 Bft) 98,28 %
16.03.2023 21:34 9,0 C 8,3 C 4,4 C 71 % 1011,1 hPa 0,0 l/m 0 min 0 min 0 W/m 22,5 km/h (4 Bft) 94,44 %
16.03.2023 21:36 9,0 C 8,3 C 4,4 C 71 % 1011,1 hPa 0,0 l/m 0 min 0 min 0 W/m 25,7 km/h (4 Bft) 93,48 %
16.03.2023 21:38 9,0 C 8,3 C 4,4 C 71 % 1011,1 hPa 0,0 l/m 0 min 0 min 0 W/m 29,0 km/h (5 Bft) 97,87 %
16.03.2023 21:40 9,0 C 8,3 C 4,4 C 71 % 1011,1 hPa 0,0 l/m 0 min 0 min 0 W/m 19,3 km/h (3 Bft) 97,87 %
16.03.2023 21:42 8,9 C 8,3 C 4,4 C 71 % 1011,0 hPa 0,0 l/m 0 min 0 min 0 W/m 19,3 km/h (3 Bft) 97,87 %
16.03.2023 21:47 8,9 C 7,8 C 4,4 C 71 % 1010,9 hPa 0,0 l/m 0 min 0 min 0 W/m 25,7 km/h (4 Bft) 98,46 %
16.03.2023 21:48 8,9 C 7,8 C 4,4 C 71 % 1010,9 hPa 0,0 l/m 0 min 0 min 0 W/m 19,3 km/h (3 Bft) 100,00 %
16.03.2023 21:50 8,9 C 7,8 C 4,4 C 71 % 1010,8 hPa 0,0 l/m 0 min 0 min 0 W/m 25,7 km/h (4 Bft) 97,83 %
16.03.2023 21:52 8,9 C 7,8 C 4,4 C 71 % 1010,8 hPa 0,0 l/m 0 min 0 min 0 W/m 19,3 km/h (3 Bft) 96,36 %
16.03.2023 21:54 8,9 C 7,8 C 4,4 C 71 % 1010,8 hPa 0,0 l/m 0 min 0 min 0 W/m 19,3 km/h (3 Bft) 97,87 %
16.03.2023 21:56 8,9 C 7,8 C 4,4 C 71 % 1010,8 hPa 0,0 l/m 0 min 0 min 0 W/m 19,3 km/h (3 Bft) 97,87 %
16.03.2023 21:58 8,8 C 7,8 C 4,4 C 71 % 1010,8 hPa 0,0 l/m 0 min 0 min 0 W/m 22,5 km/h (4 Bft) 97,87 %
16.03.2023 22:00 8,8 C 7,8 C 4,4 C 71 % 1010,7 hPa 0,0 l/m 0 min 0 min 0 W/m 29,0 km/h (5 Bft) 97,87 %
16.03.2023 22:02 8,8 C 7,8 C 4,4 C 71 % 1010,7 hPa 0,0 l/m 0 min 0 min 0 W/m 22,5 km/h (4 Bft) 100,00 %
16.03.2023 22:04 8,8 C 7,8 C 4,4 C 71 % 1010,7 hPa 0,0 l/m 0 min 0 min 0 W/m 25,7 km/h (4 Bft) 100,00 %
16.03.2023 22:06 8,8 C 7,8 C 4,4 C 71 % 1010,6 hPa 0,0 l/m 0 min 0 min 0 W/m 29,0 km/h (5 Bft) 100,00 %
16.03.2023 22:08 8,8 C 7,8 C 4,4 C 71 % 1010,6 hPa 0,0 l/m 0 min 0 min 0 W/m 25,7 km/h (4 Bft) 100,00 %
16.03.2023 22:10 8,8 C 7,8 C 4,4 C 71 % 1010,5 hPa 0,0 l/m 0 min 0 min 0 W/m 25,7 km/h (4 Bft) 100,00 %
16.03.2023 22:12 8,8 C 7,8 C 4,4 C 71 % 1010,6 hPa 0,0 l/m 0 min 0 min 0 W/m 22,5 km/h (4 Bft) 97,87 %
16.03.2023 22:14 8,8 C 7,8 C 4,4 C 71 % 1010,5 hPa 0,0 l/m 0 min 0 min 0 W/m 22,5 km/h (4 Bft) 100,00 %
16.03.2023 22:16 8,8 C 7,8 C 4,4 C 71 % 1010,5 hPa 0,0 l/m 0 min 0 min 0 W/m 16,1 km/h (3 Bft) 97,87 %
16.03.2023 22:18 8,8 C 7,8 C 4,4 C 71 % 1010,5 hPa 0,0 l/m 0 min 0 min 0 W/m 29,0 km/h (5 Bft) 97,87 %
16.03.2023 22:20 8,8 C 7,8 C 4,4 C 71 % 1010,5 hPa 0,0 l/m 0 min 0 min 0 W/m 22,5 km/h (4 Bft) 97,87 %
16.03.2023 22:22 8,8 C 7,8 C 4,4 C 71 % 1010,4 hPa 0,0 l/m 0 min 0 min 0 W/m 19,3 km/h (3 Bft) 93,62 %
16.03.2023 22:24 8,8 C 7,8 C 4,4 C 71 % 1010,4 hPa 0,0 l/m 0 min 0 min 0 W/m 29,0 km/h (5 Bft) 97,87 %
16.03.2023 22:26 8,8 C 7,8 C 4,4 C 71 % 1010,5 hPa 0,0 l/m 0 min 0 min 0 W/m 25,7 km/h (4 Bft) 93,62 %
16.03.2023 22:28 8,8 C 7,8 C 4,4 C 71 % 1010,5 hPa 0,0 l/m 0 min 0 min 0 W/m 25,7 km/h (4 Bft) 97,83 %
16.03.2023 22:30 8,8 C 7,8 C 4,4 C 71 % 1010,5 hPa 0,0 l/m 0 min 0 min 0 W/m 25,7 km/h (4 Bft) 97,87 %
16.03.2023 22:32 8,8 C 7,8 C 4,4 C 71 % 1010,5 hPa 0,0 l/m 0 min 0 min 0 W/m 16,1 km/h (3 Bft) 97,87 %
16.03.2023 22:34 8,8 C 7,8 C 4,4 C 71 % 1010,4 hPa 0,0 l/m 0 min 0 min 0 W/m 22,5 km/h (4 Bft) 95,74 %
16.03.2023 22:36 8,8 C 7,8 C 4,4 C 71 % 1010,4 hPa 0,0 l/m 0 min 0 min 0 W/m 22,5 km/h (4 Bft) 96,36 %
16.03.2023 22:38 8,8 C 7,8 C 4,4 C 71 % 1010,4 hPa 0,0 l/m 0 min 0 min 0 W/m 29,0 km/h (5 Bft) 97,14 %
16.03.2023 22:40 8,8 C 7,8 C 4,4 C 71 % 1010,4 hPa 0,0 l/m 0 min 0 min 0 W/m 29,0 km/h (5 Bft) 95,74 %
16.03.2023 22:42 8,8 C 7,8 C 4,4 C 71 % 1010,4 hPa 0,0 l/m 0 min 0 min 0 W/m 19,3 km/h (3 Bft) 96,55 %
16.03.2023 22:44 8,8 C 7,8 C 4,4 C 71 % 1010,3 hPa 0,0 l/m 0 min 0 min 0 W/m 25,7 km/h (4 Bft) 97,87 %
16.03.2023 22:46 8,7 C 7,8 C 3,9 C 71 % 1010,5 hPa 0,0 l/m 0 min 0 min 0 W/m 19,3 km/h (3 Bft) 97,87 %
16.03.2023 22:48 8,7 C 7,8 C 3,9 C 71 % 1010,4 hPa 0,0 l/m 0 min 0 min 0 W/m 29,0 km/h (5 Bft) 97,14 %
16.03.2023 22:50 8,7 C 7,8 C 4,4 C 72 % 1010,4 hPa 0,0 l/m 0 min 0 min 0 W/m 29,0 km/h (5 Bft) 96,08 %
16.03.2023 22:52 8,7 C 7,8 C 4,4 C 71 % 1010,3 hPa 0,0 l/m 0 min 0 min 0 W/m 25,7 km/h (4 Bft) 97,87 %
16.03.2023 22:54 8,7 C 7,8 C 3,9 C 71 % 1010,3 hPa 0,0 l/m 0 min 0 min 0 W/m 22,5 km/h (4 Bft) 97,87 %
16.03.2023 22:56 8,7 C 7,8 C 4,4 C 71 % 1010,2 hPa 0,0 l/m 0 min 0 min 0 W/m 32,2 km/h (5 Bft) 97,83 %
16.03.2023 22:58 8,7 C 7,8 C 4,4 C 71 % 1010,2 hPa 0,0 l/m 0 min 0 min 0 W/m 22,5 km/h (4 Bft) 93,62 %
16.03.2023 23:00 8,7 C 7,8 C 3,9 C 71 % 1010,1 hPa 0,0 l/m 0 min 0 min 0 W/m 19,3 km/h (3 Bft) 100,00 %
16.03.2023 23:02 8,7 C 7,8 C 3,9 C 71 % 1010,2 hPa 0,0 l/m 0 min 0 min 0 W/m 19,3 km/h (3 Bft) 97,87 %
16.03.2023 23:04 8,7 C 7,8 C 3,9 C 71 % 1010,2 hPa 0,0 l/m 0 min 0 min 0 W/m 32,2 km/h (5 Bft) 93,62 %
16.03.2023 23:06 8,7 C 7,8 C 3,9 C 71 % 1010,2 hPa 0,0 l/m 0 min 0 min 0 W/m 19,3 km/h (3 Bft) 95,74 %
16.03.2023 23:08 8,7 C 7,8 C 3,9 C 71 % 1010,2 hPa 0,0 l/m 0 min 0 min 0 W/m 29,0 km/h (5 Bft) 100,00 %
16.03.2023 23:10 8,7 C 7,8 C 3,9 C 71 % 1010,1 hPa 0,0 l/m 0 min 0 min 0 W/m 29,0 km/h (5 Bft) 97,87 %
16.03.2023 23:12 8,7 C 7,8 C 3,9 C 71 % 1010,1 hPa 0,0 l/m 0 min 0 min 0 W/m 22,5 km/h (4 Bft) 95,74 %
16.03.2023 23:14 8,7 C 7,8 C 3,9 C 71 % 1010,2 hPa 0,0 l/m 0 min 0 min 0 W/m 25,7 km/h (4 Bft) 93,62 %
16.03.2023 23:16 8,7 C 7,8 C 3,9 C 71 % 1010,2 hPa 0,0 l/m 0 min 0 min 0 W/m 29,0 km/h (5 Bft) 95,74 %
16.03.2023 23:18 8,7 C 7,8 C 3,9 C 71 % 1010,2 hPa 0,0 l/m 0 min 0 min 0 W/m 32,2 km/h (5 Bft) 93,62 %
16.03.2023 23:20 8,7 C 7,8 C 3,9 C 71 % 1010,1 hPa 0,0 l/m 0 min 0 min 0 W/m 32,2 km/h (5 Bft) 95,74 %
16.03.2023 23:22 8,7 C 7,8 C 3,9 C 71 % 1010,1 hPa 0,0 l/m 0 min 0 min 0 W/m 22,5 km/h (4 Bft) 95,65 %
16.03.2023 23:24 8,7 C 7,8 C 3,9 C 71 % 1010,0 hPa 0,0 l/m 0 min 0 min 0 W/m 25,7 km/h (4 Bft) 95,74 %
16.03.2023 23:26 8,7 C 7,8 C 3,9 C 72 % 1010,0 hPa 0,0 l/m 0 min 0 min 0 W/m 25,7 km/h (4 Bft) 95,74 %
16.03.2023 23:28 8,7 C 7,8 C 3,9 C 71 % 1010,0 hPa 0,0 l/m 0 min 0 min 0 W/m 25,7 km/h (4 Bft) 93,62 %
16.03.2023 23:30 8,7 C 7,8 C 3,9 C 71 % 1009,9 hPa 0,0 l/m 0 min 0 min 0 W/m 19,3 km/h (3 Bft) 94,34 %
16.03.2023 23:32 8,7 C 7,8 C 3,9 C 71 % 1009,9 hPa 0,0 l/m 0 min 0 min 0 W/m 19,3 km/h (3 Bft) 95,74 %
16.03.2023 23:34 8,7 C 7,8 C 3,9 C 72 % 1009,9 hPa 0,0 l/m 0 min 0 min 0 W/m 25,7 km/h (4 Bft) 91,49 %
16.03.2023 23:36 8,7 C 7,8 C 3,9 C 71 % 1010,0 hPa 0,0 l/m 0 min 0 min 0 W/m 25,7 km/h (4 Bft) 93,48 %
16.03.2023 23:38 8,7 C 7,8 C 4,4 C 71 % 1010,0 hPa 0,0 l/m 0 min 0 min 0 W/m 32,2 km/h (5 Bft) 93,62 %
16.03.2023 23:40 8,7 C 7,8 C 4,4 C 71 % 1010,0 hPa 0,0 l/m 0 min 0 min 0 W/m 25,7 km/h (4 Bft) 93,75 %
16.03.2023 23:42 8,7 C 7,8 C 4,4 C 71 % 1010,1 hPa 0,0 l/m 0 min 0 min 0 W/m 19,3 km/h (3 Bft) 95,74 %
16.03.2023 23:44 8,7 C 7,8 C 3,9 C 71 % 1010,0 hPa 0,0 l/m 0 min 0 min 0 W/m 19,3 km/h (3 Bft) 95,74 %
16.03.2023 23:46 8,7 C 7,8 C 3,9 C 71 % 1009,9 hPa 0,0 l/m 0 min 0 min 0 W/m 25,7 km/h (4 Bft) 95,74 %
16.03.2023 23:48 8,7 C 7,8 C 3,9 C 71 % 1009,9 hPa 0,0 l/m 0 min 0 min 0 W/m 22,5 km/h (4 Bft) 97,87 %
16.03.2023 23:50 8,7 C 7,8 C 3,9 C 71 % 1009,9 hPa 0,0 l/m 0 min 0 min 0 W/m 35,4 km/h (5 Bft) 97,83 %
16.03.2023 23:52 8,7 C 7,8 C 3,9 C 71 % 1009,9 hPa 0,0 l/m 0 min 0 min 0 W/m 22,5 km/h (4 Bft) 93,62 %
16.03.2023 23:54 8,7 C 7,8 C 3,9 C 71 % 1009,7 hPa 0,0 l/m 0 min 0 min 0 W/m 29,0 km/h (5 Bft) 100,00 %
16.03.2023 23:56 8,7 C 7,8 C 4,4 C 71 % 1009,7 hPa 0,0 l/m 0 min 0 min 0 W/m 32,2 km/h (5 Bft) 100,00 %
16.03.2023 23:58 8,7 C 7,8 C 4,4 C 71 % 1009,7 hPa 0,0 l/m 0 min 0 min 0 W/m 25,7 km/h (4 Bft) 100,00 %
_ Min-Zeit 01:34 00:40 00:44 15:56 23:54 - - - - 00:00 00:48
Minimum _ 2,9 C 2,2 C -1,1 C 59 % 1009,7 hPa - - - - 6,4 km/h (2 Bft) 28,57 %
_ Max-Zeit 15:54 15:44 14:54 01:22 00:24 00:00 12:07 10:00 12:50 15:38 01:20
Maximum _ 13,2 C 15,6 C 8,3 C 83 % 1019,9 hPa 0,0 l/m 3 min 2 min 648 W/m 45,1 km/h
O-NO (6 Bft)
100,00 %
Durchschnitt _ 7,2 C 7,1 C 3,0 C 74 % 1015,2 hPa #0,0 l/m #6:06 h #2 min. 247 W/m 21,5 km/h (4 Bft) 96,97 %
© 2023 W. Hausmann